GFSFLT1_250_rhum_000.txt.gz
RH
31 30 29 25 22 20 18 19 16 17 18 18 20 20 19 22 21 20 20 21 19 19 20 20 22 21 26 24 31 24 26 19 18
31 29 23 21 20 20 18 18 18 18 19 21 21 20 21 23 25 25 27 28 30 32 28 30 26 39 52 39 36 37 36 31 27
29 24 23 22 21 18 19 17 17 18 22 22 24 27 27 28 27 27 33 38 57 41 36 41 33 64 88 68 46 38 50 57 50
24 25 24 22 20 17 15 18 22 24 24 26 30 35 35 34 33 38 42 54 67 62 61 49 47 96 100 84 72 60 56 69 52
28 23 22 21 15 18 22 26 23 24 27 31 38 46 46 40 45 52 56 62 58 55 77 59 58 100 100 100 99 75 69 91 76
25 22 20 18 24 26 29 27 26 29 39 46 41 44 50 55 62 60 66 54 48 66 94 68 76 100 100 100 100 90 78 98 71
20 19 24 30 30 30 31 33 34 36 42 50 42 46 51 62 72 68 63 63 73 100 100 70 85 100 100 100 100 100 99 100 96
22 26 32 32 33 38 42 40 44 56 66 86 86 73 69 84 97 99 94 78 50 94 89 82 94 100 100 100 100 100 100 100 89
32 38 39 41 40 42 48 55 54 51 59 53 57 41 51 70 99 100 100 100 84 81 86 88 81 71 99 100 100 100 100 100 100
41 42 40 38 45 45 52 67 81 82 83 88 92 83 85 100 100 91 86 99 100 97 99 95 77 91 98 100 100 100 100 100 100
43 44 43 44 44 48 58 74 84 98 100 97 87 98 100 100 98 66 78 78 85 87 88 88 100 100 100 100 100 100 100 100 100
43 43 43 49 54 55 64 72 97 100 62 53 63 78 87 64 64 64 81 96 100 100 100 100 100 100 100 100 100 100 100 100 100
44 46 49 52 57 67 78 82 69 66 70 69 64 70 62 63 66 76 83 86 83 87 94 97 88 80 91 98 100 100 100 100 100
53 64 60 62 68 58 54 60 66 69 72 75 72 70 75 68 72 59 65 52 41 41 55 62 62 69 76 83 92 100 100 100 100
56 51 50 56 58 58 80 79 80 84 80 69 68 57 74 79 53 61 54 40 36 44 55 55 65 73 79 85 88 100 100 100 100
40 50 57 52 57 78 99 100 100 96 66 62 68 64 57 58 54 48 48 55 53 57 69 83 84 82 79 78 76 93 100 100 100
59 59 65 70 74 79 64 57 64 77 75 69 64 55 79 57 58 60 66 65 72 82 82 81 76 78 67 68 72 88 100 100 100
67 59 55 54 44 48 47 47 49 61 74 76 56 54 64 66 80 75 89 96 98 88 86 78 85 79 74 56 67 86 100 100 100
57 47 39 43 43 44 48 44 39 41 44 66 58 61 64 61 56 80 98 100 99 94 96 95 97 75 66 53 59 81 100 100 100
56 64 67 65 53 52 44 35 36 55 44 52 54 49 56 66 72 91 100 98 97 98 96 100 97 96 69 49 59 66 99 100 100

GFSFLT1_250_rhum_003.txt.gz
RH
61 38 34 38 27 21 21 22 20 19 18 16 18 23 24 24 24 25 24 23 24 27 24 29 34 31 41 35 67 76 62 60 44
44 38 34 30 23 21 24 22 20 19 18 18 22 22 27 26 26 27 25 26 26 34 38 39 41 56 73 48 74 99 80 84 70
40 32 27 24 22 23 22 21 17 17 20 22 21 25 29 30 28 30 34 40 44 52 59 51 39 62 80 50 63 81 88 72 82
37 25 24 24 24 22 22 16 20 24 25 21 27 34 38 34 30 34 42 48 54 66 64 59 50 80 100 82 92 80 80 78 83
30 28 30 26 23 22 19 24 24 26 27 29 35 37 39 33 31 28 35 51 91 87 100 100 82 68 61 80 75 67 70 84 84
36 33 26 25 19 26 27 26 29 32 36 35 34 36 39 46 46 40 39 61 87 97 97 80 82 82 77 84 82 74 94 99 100
43 25 27 20 23 28 31 34 35 38 41 48 55 60 65 69 71 61 69 94 100 100 84 68 87 93 95 98 93 100 100 100 100
22 27 22 26 31 38 38 39 40 46 59 65 70 68 70 64 60 74 99 100 98 78 85 73 65 68 80 79 100 100 100 100 94
30 24 32 38 41 38 39 40 40 37 41 47 58 84 93 81 82 83 71 70 67 62 59 60 69 62 49 57 80 82 75 74 82
28 35 39 40 41 41 39 39 40 43 54 65 71 90 75 77 81 80 83 71 70 78 76 78 63 72 49 49 64 72 86 90 82
35 41 43 44 42 40 42 47 52 59 62 63 74 90 87 91 79 70 76 80 82 78 72 64 70 59 60 68 67 73 76 77 80
43 43 42 40 39 48 54 45 60 65 61 71 75 75 87 99 98 100 83 67 65 60 56 50 56 67 71 68 83 73 68 73 70
43 41 36 35 42 53 45 47 45 48 57 64 82 92 98 94 80 70 60 56 57 74 57 44 78 66 72 78 76 80 70 56 59
40 38 34 36 49 42 43 48 46 61 56 52 65 54 47 40 38 41 48 62 72 67 55 59 79 70 76 80 86 80 71 69 66
42 45 46 43 39 47 60 60 57 52 40 40 40 36 38 37 38 51 51 64 73 64 68 63 79 89 87 85 79 73 68 76 73
37 37 37 43 50 71 73 60 46 45 44 43 49 49 42 43 49 61 73 72 59 67 70 80 95 99 81 85 78 65 67 77 76
37 40 48 63 76 88 74 70 68 70 67 59 46 34 47 52 66 57 61 57 66 67 69 91 93 79 79 87 80 72 69 69 67
44 51 68 64 62 62 59 49 38 39 49 41 37 36 42 46 53 52 40 51 59 71 87 94 78 79 76 74 80 74 70 69 67
51 60 59 57 52 45 34 38 41 41 42 47 53 51 51 46 56 50 45 51 63 82 95 99 84 78 76 71 74 73 78 79 69
70 58 57 64 56 62 58 50 50 48 48 46 52 48 51 54 49 44 41 48 65 81 89 87 80 78 74 74 74 75 76 80 77

GFSFLT1_250_rhum_006.txt.gz
RH
82 57 48 45 42 36 28 32 30 24 23 20 19 19 18 18 21 23 21 23 22 22 20 23 62 67 76 66 53 60 51 50 51
81 71 61 60 45 36 31 29 27 24 22 20 17 18 20 20 23 26 27 23 22 23 25 42 79 62 81 84 70 60 66 61 57
94 84 77 57 40 33 29 29 24 23 18 16 18 22 22 23 26 26 27 25 34 35 35 41 59 62 66 60 61 60 54 62 54
74 62 52 47 40 32 30 24 21 18 18 22 25 26 26 27 27 32 38 47 58 55 42 49 67 92 74 80 70 55 56 53 68
52 49 53 38 38 35 25 19 18 21 27 28 29 26 33 44 59 66 68 73 51 40 37 55 80 67 64 65 62 58 57 68 71
62 51 42 47 40 24 21 20 25 26 29 31 32 39 49 54 53 48 58 58 49 51 66 83 79 76 65 67 64 70 76 74 54
55 54 48 39 23 24 22 25 30 32 32 36 37 37 38 45 49 52 61 69 74 89 82 86 78 67 69 69 86 74 64 60 70
54 44 36 22 29 23 29 33 32 33 35 37 40 45 45 44 46 57 78 80 71 84 78 72 68 74 64 71 69 61 66 56 75
45 27 24 30 28 33 33 34 37 36 42 43 37 42 45 53 66 79 81 78 87 87 74 70 58 53 63 89 64 63 62 72 76
21 29 28 28 33 34 37 39 41 41 46 43 42 48 59 76 80 85 90 87 85 53 43 38 47 54 83 89 62 62 73 71 74
36 30 29 32 37 42 42 40 36 39 47 48 50 56 58 54 52 50 59 54 49 41 41 48 60 89 86 76 60 64 81 69 65
32 31 32 39 43 42 41 37 33 38 45 41 49 63 63 56 55 45 41 47 51 51 50 58 84 100 79 61 70 72 86 70 70
33 35 37 38 40 40 36 33 36 43 42 55 64 66 54 54 55 58 61 54 39 44 48 53 68 87 73 65 68 74 85 70 68
44 43 40 39 39 42 44 42 38 44 49 67 79 72 65 52 46 42 41 40 39 45 55 63 46 54 60 59 74 79 79 78 74
62 60 53 50 52 50 46 42 51 58 72 82 73 53 38 39 44 41 40 40 42 44 46 65 61 44 52 58 70 66 82 78 74
77 70 60 39 34 38 41 48 54 66 62 56 44 36 46 48 51 48 44 48 59 64 68 61 64 59 42 46 67 70 73 72 74
48 44 40 35 37 39 45 49 60 67 64 52 44 48 59 70 76 79 78 73 75 75 75 68 63 76 56 52 70 77 72 66 71
45 41 38 38 40 43 43 60 68 58 65 69 54 58 66 76 99 90 84 85 88 82 76 75 81 93 82 53 57 61 62 64 68
42 41 38 36 36 40 56 65 46 50 63 68 66 68 70 74 85 100 92 82 83 79 76 84 87 99 99 72 46 51 57 61 74
48 48 44 42 44 60 76 58 58 70 72 86 91 92 95 100 77 70 79 69 56 54 71 70 87 100 100 91 56 49 57 64 70

GFSFLT1_250_rhum_009.txt.gz
RH
58 63 89 83 69 47 42 51 42 38 33 28 25 23 21 19 17 18 21 22 24 26 27 27 35 37 34 34 36 38 49 52 48
71 64 81 86 74 69 72 56 47 40 32 27 23 21 18 16 19 24 24 27 28 31 35 36 40 42 39 37 38 43 52 54 49
70 71 91 86 78 76 60 49 41 38 30 24 20 18 18 24 27 29 27 32 35 34 35 40 45 42 42 46 55 58 58 55 56
76 77 71 61 59 58 51 43 35 32 25 19 18 20 26 28 29 27 29 31 36 36 38 42 44 44 53 61 60 58 52 58 60
90 69 55 66 60 49 44 37 36 25 21 19 26 26 29 28 29 30 32 35 30 31 37 53 66 67 64 62 46 51 56 52 59
96 76 64 65 56 48 42 39 26 24 21 25 28 29 30 32 35 37 36 36 38 40 51 63 65 61 62 47 44 42 49 68 78
67 68 63 54 50 42 36 24 26 24 28 32 32 34 36 39 33 32 34 36 40 47 65 73 58 50 50 48 47 48 70 92 90
70 71 55 51 48 31 24 30 27 29 34 35 37 36 39 42 40 33 34 39 50 54 58 51 43 54 53 41 44 50 80 98 93
66 72 67 53 26 32 30 28 29 36 38 38 34 36 43 51 48 41 51 61 58 55 54 51 54 43 34 38 52 49 56 91 83
81 71 50 32 35 31 27 30 35 39 42 40 37 36 43 54 50 54 64 67 60 50 44 44 43 42 40 45 48 50 47 55 68
71 46 33 38 32 31 32 33 39 42 42 39 37 42 46 50 50 58 70 75 62 41 40 44 44 42 42 44 55 63 62 50 43
38 35 40 38 33 36 35 36 39 40 41 40 38 38 40 43 50 57 86 69 46 38 46 54 60 62 64 69 66 62 62 72 56
55 43 40 35 35 36 35 36 37 39 39 37 35 36 43 52 67 81 73 49 38 48 57 72 77 82 88 89 86 81 69 68 82
56 45 41 41 44 44 42 44 44 46 36 31 34 41 45 47 55 65 57 47 50 56 70 88 89 96 100 94 84 78 75 82 78
51 47 44 44 59 60 58 58 62 56 43 37 41 41 42 51 60 61 56 60 61 62 70 80 96 100 100 98 93 77 67 79 87
45 48 58 66 69 66 57 51 46 49 40 35 37 40 41 56 63 50 57 69 75 83 91 94 98 100 100 100 89 81 74 67 75
45 56 61 60 61 61 52 41 37 35 34 34 34 38 52 83 68 57 72 79 85 98 100 93 100 100 100 100 83 74 73 73 81
45 48 50 50 47 49 44 42 40 38 43 46 42 44 69 89 83 70 79 89 89 87 98 100 100 100 100 82 84 82 67 65 73
42 43 42 46 45 46 50 56 63 74 64 68 70 68 65 60 53 62 77 99 100 100 100 100 100 100 92 84 91 82 64 63 56
46 50 52 52 54 57 64 68 61 56 58 69 71 62 60 67 67 70 76 79 87 100 100 100 100 97 92 84 86 92 74 49 46

GFSFLT1_250_rhum_012.txt.gz
RH
100 100 93 76 66 57 58 58 55 43 42 40 44 48 33 29 24 21 17 20 24 25 27 29 30 26 27 26 27 26 34 38 37
100 100 93 72 72 60 59 57 54 48 54 52 41 35 28 24 20 18 23 27 29 29 29 27 30 28 26 29 35 46 43 46 43
100 98 78 58 50 51 51 49 51 52 50 40 36 30 23 18 19 24 28 30 30 30 31 33 25 30 33 42 43 44 40 45 41
100 74 58 50 58 68 57 50 50 50 47 40 33 25 20 23 28 30 31 32 34 36 36 25 30 39 43 43 42 43 47 39 35
96 83 80 71 63 60 58 59 52 46 42 36 27 24 27 29 32 30 32 36 38 31 27 35 37 43 46 44 46 46 55 42 40
100 90 66 70 57 61 67 50 47 42 32 27 24 25 30 32 32 36 40 45 38 36 28 34 39 43 52 41 39 44 40 39 40
83 92 86 54 60 69 55 55 53 29 27 30 26 29 35 36 37 35 37 39 38 30 30 36 45 55 54 37 38 43 44 55 55
98 84 71 55 60 61 58 58 40 26 26 28 28 33 36 41 37 34 33 31 34 31 32 44 56 61 49 38 45 57 64 71 78
76 71 62 60 74 63 56 41 27 28 26 26 30 36 40 39 39 37 36 35 34 35 42 50 59 61 44 40 51 65 62 69 83
73 69 81 89 76 62 36 27 32 29 29 31 34 36 40 41 42 40 37 37 37 42 48 58 65 60 46 46 56 67 76 90 95
82 99 95 84 62 39 33 35 32 32 33 33 34 36 37 39 41 41 40 37 40 45 46 57 63 72 54 56 61 70 79 93 100
90 100 82 71 49 37 38 38 34 33 33 34 36 38 41 46 44 38 40 39 40 46 52 70 73 76 70 71 72 78 86 95 100
92 93 74 76 44 46 43 36 35 37 38 42 46 50 48 47 48 48 41 44 46 45 43 62 71 61 57 67 77 90 96 100 100
67 69 77 72 42 44 43 36 38 48 50 47 50 50 48 44 44 44 42 42 38 42 46 57 69 66 61 70 86 96 99 100 100
75 84 85 48 40 42 43 39 49 57 53 49 63 54 52 47 44 39 36 36 37 40 49 68 78 89 76 65 72 89 99 96 100
78 58 41 32 36 41 42 42 53 57 54 55 55 50 49 45 43 36 37 37 43 49 59 67 68 70 63 62 68 79 97 100 100
58 48 38 33 38 43 46 46 49 51 51 40 37 38 44 58 59 65 63 63 67 71 72 70 74 75 78 82 88 95 99 100 100
46 39 37 40 49 54 50 44 41 42 45 46 40 40 46 54 76 87 92 96 99 98 94 95 93 90 86 88 91 97 100 100 100
42 48 55 56 55 55 61 64 60 55 49 61 72 62 59 60 57 76 80 85 95 100 97 96 100 99 97 92 99 100 100 98 98
54 56 58 64 67 63 59 58 64 74 76 74 73 79 78 76 65 57 69 63 63 71 77 81 72 72 75 77 84 95 100 100 93

GFSFLT1_250_rhum_015.txt.gz
RH
40 95 100 100 100 100 81 67 55 57 58 50 46 51 64 56 40 36 30 25 18 20 25 29 30 30 26 23 26 30 30 32 30
94 100 100 100 100 100 78 61 47 47 49 45 48 53 53 46 37 31 22 18 20 26 31 31 32 32 27 21 25 34 35 29 32
100 100 100 100 100 94 60 47 45 55 54 54 54 51 49 42 34 23 20 26 30 33 33 35 37 33 22 23 30 38 43 30 36
100 100 100 100 100 77 62 61 53 51 57 53 51 46 40 37 28 22 29 31 33 34 36 38 37 26 23 30 38 44 43 38 38
100 77 78 81 97 94 61 54 48 46 57 49 48 43 33 30 27 26 31 33 35 38 40 46 37 30 29 33 46 54 50 45 41
100 100 100 100 100 82 73 69 54 52 56 46 51 33 26 26 25 27 34 36 37 37 36 37 38 36 33 38 47 57 64 58 41
100 100 100 100 88 90 74 58 50 54 57 55 44 26 24 26 25 27 34 37 41 38 34 36 33 31 34 41 49 57 66 69 50
100 100 100 94 80 78 62 62 59 67 58 39 29 26 26 27 28 31 36 42 41 41 37 37 35 36 40 44 49 53 55 66 62
100 100 100 81 92 65 83 86 81 65 43 29 33 30 28 29 31 34 36 39 39 39 40 36 34 34 38 41 46 47 56 63 71
99 98 87 90 82 74 89 78 73 58 36 33 34 30 32 33 34 35 36 38 40 42 40 36 34 35 39 44 46 52 56 73 73
84 86 96 80 71 85 77 72 66 58 38 40 36 33 34 35 36 40 44 45 46 46 46 41 35 38 41 45 48 45 46 57 72
100 95 84 69 70 84 74 62 69 66 42 42 35 36 40 43 48 49 55 60 58 46 42 39 41 42 40 40 40 41 46 51 61
66 65 67 67 66 72 65 60 68 58 40 39 41 38 40 52 53 58 54 50 50 46 40 38 40 40 40 40 41 46 52 60 66
67 67 63 70 83 73 73 70 54 37 36 38 43 40 40 46 50 50 50 50 45 46 45 41 42 43 45 50 50 53 60 62 68
75 74 80 86 82 72 59 49 37 32 32 36 41 43 45 48 50 48 47 46 40 40 44 48 49 48 48 46 48 54 57 60 64
94 94 78 68 73 72 56 47 36 34 30 31 37 44 44 44 44 46 47 49 53 50 50 50 47 51 54 55 54 50 52 57 64
83 83 82 72 53 43 41 40 43 45 41 35 37 39 46 49 55 58 66 74 79 73 69 70 69 72 69 67 71 78 82 86 81
76 52 45 50 55 56 53 49 43 43 48 42 39 40 42 42 63 79 81 80 75 75 76 82 78 84 85 87 91 94 96 88 81
46 54 60 60 57 53 49 48 48 47 49 52 55 48 43 43 43 55 58 61 67 81 96 98 95 93 89 82 75 78 74 77 83
61 58 53 51 49 46 46 52 59 71 84 83 78 77 82 79 61 53 64 61 59 61 60 62 80 90 79 71 67 63 58 50 45

GFSFLT1_250_rhum_018.txt.gz
RH
16 33 41 36 53 97 100 100 100 87 82 68 52 46 50 45 43 51 52 50 41 35 26 19 21 25 30 32 31 31 30 25 28
20 50 38 59 100 100 100 100 100 98 76 51 53 51 52 59 57 52 48 44 38 27 18 21 27 31 32 33 34 33 23 26 33
24 35 62 100 100 100 100 100 100 97 64 64 56 52 55 55 56 48 44 40 34 21 25 29 32 32 35 38 39 32 21 28 34
25 50 100 100 100 100 100 100 99 68 65 54 51 48 55 50 53 48 36 33 29 25 29 32 34 38 40 44 45 31 27 30 34
27 92 100 100 100 99 93 68 84 100 73 51 44 52 53 53 59 44 29 31 29 30 36 37 40 40 39 39 38 39 35 33 37
38 85 100 100 100 100 87 100 100 91 70 50 53 50 59 59 46 35 27 33 31 32 43 43 42 45 44 37 37 38 35 36 40
48 100 100 100 100 100 100 100 97 71 60 58 67 66 66 41 33 32 29 32 31 30 38 41 43 44 42 41 42 42 42 40 41
58 100 100 100 100 100 100 100 86 70 61 61 69 66 57 36 33 33 28 29 30 30 34 38 41 42 42 42 42 40 38 37 38
65 72 100 100 100 100 100 72 69 75 66 74 69 59 56 40 37 36 31 32 32 34 35 36 37 38 40 44 45 38 35 37 38
97 93 99 100 100 86 89 91 80 75 67 76 67 56 56 43 41 39 33 32 34 35 36 39 42 42 42 39 36 36 37 40 43
98 97 97 94 91 92 84 88 94 75 73 72 63 57 68 48 37 40 39 36 36 39 45 45 44 42 39 40 44 44 47 50 45
94 100 100 100 100 91 77 80 76 70 70 80 67 69 56 37 34 36 37 38 39 41 46 46 47 47 48 50 46 45 43 40 38
99 98 99 90 78 75 70 72 56 62 81 81 85 68 49 38 33 35 37 39 39 40 42 41 49 54 53 52 47 41 36 38 40
76 69 65 64 53 55 62 64 80 86 77 78 70 61 52 39 34 34 36 38 40 44 47 48 44 38 38 37 37 39 40 41 41
47 48 47 47 57 71 93 93 81 76 74 65 46 42 39 41 42 43 41 40 39 39 37 36 35 35 34 33 35 41 50 60 62
44 49 58 83 100 98 83 70 65 46 40 42 47 48 51 52 46 49 48 48 49 42 38 37 36 39 42 47 48 48 51 56 60
83 94 100 98 89 80 72 52 44 50 46 41 43 52 69 66 64 63 63 60 61 60 56 52 54 46 47 51 57 61 63 62 60
90 92 83 79 77 72 48 52 53 51 63 58 44 42 46 49 66 71 64 54 46 47 54 63 69 76 75 67 62 57 50 50 45
66 67 70 70 56 54 65 64 62 57 50 57 64 55 43 38 39 44 46 59 73 78 87 84 70 61 60 58 54 51 51 42 39
43 49 56 62 74 70 64 54 47 50 58 61 69 76 76 65 47 42 44 49 48 50 46 43 38 43 39 40 41 42 43 45 46

GFSFLT1_250_rhum_021.txt.gz
RH
20 20 14 12 16 29 60 56 45 81 100 61 70 100 78 61 51 57 59 62 54 49 49 48 41 35 24 20 23 30 32 33 33
21 17 12 13 19 31 38 42 100 100 100 100 98 97 68 62 66 54 55 61 55 48 46 44 38 27 20 23 30 32 33 34 38
20 14 13 16 25 33 43 93 100 100 100 100 100 92 65 59 52 52 55 62 54 53 43 36 33 24 25 33 35 36 38 42 44
16 13 15 18 32 49 100 100 100 100 100 100 85 60 90 75 48 45 54 65 66 52 36 32 31 30 38 41 41 43 42 40 39
14 13 15 19 35 98 81 100 100 100 100 79 72 100 85 58 44 57 70 70 50 40 35 31 33 35 41 44 44 47 46 46 42
12 14 17 20 59 100 100 100 100 99 75 82 100 92 67 48 52 73 68 57 37 31 30 30 35 36 39 46 47 49 47 45 42
11 16 20 23 44 100 100 100 100 100 100 92 100 90 68 52 53 69 62 52 38 36 33 34 36 35 34 44 44 42 42 42 42
13 18 22 34 72 100 100 100 100 100 100 100 95 71 54 55 64 72 64 54 45 39 37 35 36 34 32 34 37 39 39 39 40
17 25 34 59 69 100 100 100 100 100 100 100 94 66 59 62 64 68 62 57 54 40 39 35 34 34 34 34 35 35 36 41 39
19 26 56 86 48 78 100 100 100 100 99 96 70 80 77 78 66 70 72 65 58 38 38 39 37 36 37 38 41 44 43 41 42
21 40 48 97 93 88 89 100 100 100 81 67 78 75 77 68 65 85 81 75 60 45 33 36 37 36 36 36 38 42 43 47 50
27 66 89 87 92 100 96 83 79 79 81 82 70 63 65 58 71 83 77 70 67 50 30 27 31 33 33 34 37 40 43 44 47
24 54 84 99 100 100 100 92 83 77 70 68 58 60 75 89 76 69 62 54 44 41 41 37 32 31 35 40 44 45 45 45 44
24 30 46 59 68 76 72 66 72 65 46 54 79 99 96 83 78 60 48 46 48 54 55 61 67 61 47 42 41 44 50 48 44
22 25 34 45 49 48 52 50 51 67 83 98 100 92 72 54 46 54 56 55 59 61 59 51 55 58 61 59 51 43 46 48 48
32 30 30 36 40 45 58 71 86 99 95 95 87 78 54 58 57 60 68 66 63 62 60 64 56 57 56 53 52 45 40 38 37
59 60 61 67 74 82 91 100 100 99 92 66 60 53 66 66 60 60 62 72 83 87 80 68 58 47 41 39 39 41 40 47 52
61 68 80 86 86 85 77 74 72 72 78 59 49 52 53 58 68 85 95 90 80 72 83 77 72 69 64 61 59 55 53 50 47
37 39 45 46 45 43 45 49 51 54 62 65 64 58 49 47 54 62 63 70 76 80 73 68 68 69 64 54 45 40 38 37 38
42 43 42 41 42 47 54 58 57 54 55 56 61 68 66 61 52 47 44 45 46 55 62 55 52 53 49 41 39 40 43 47 51

GFSFLT1_250_rhum_024.txt.gz
RH
21 20 21 21 20 21 18 13 14 20 32 100 77 48 86 74 87 100 81 63 61 53 48 49 54 52 48 48 46 37 24 22 28
18 19 23 22 22 20 15 13 15 24 48 62 64 99 100 100 100 100 75 63 53 47 41 50 50 49 47 41 37 27 23 30 35
17 22 24 25 23 16 13 14 17 30 28 59 100 100 100 100 100 89 84 69 66 43 42 55 58 53 48 34 32 26 28 36 43
19 23 29 30 20 13 13 15 19 26 61 100 100 100 100 100 97 92 99 83 54 43 76 67 58 45 39 35 33 33 38 43 46
29 38 35 22 15 12 14 17 31 96 100 95 88 100 100 100 67 100 94 73 49 45 66 62 49 35 33 34 33 36 41 50 48
50 39 23 16 12 14 17 30 69 93 66 99 100 100 100 100 92 97 84 66 53 45 61 65 52 42 33 33 36 38 39 41 45
42 25 20 15 12 17 18 25 80 97 100 100 100 100 100 100 100 100 90 64 43 48 59 65 61 55 42 37 36 41 41 39 44
26 23 20 12 12 17 20 23 67 100 100 100 100 100 100 100 100 100 90 60 43 52 62 63 69 62 44 43 40 40 41 37 35
21 20 15 11 14 20 24 26 74 100 100 100 100 100 100 100 100 97 82 57 62 56 62 62 74 73 60 42 42 42 41 40 38
21 16 12 11 16 23 26 30 49 100 100 100 100 100 100 100 94 83 69 61 58 60 59 62 79 72 63 54 41 40 41 41 40
23 17 14 14 15 28 36 57 58 62 90 100 100 99 99 91 76 72 64 60 62 61 79 80 76 78 70 53 41 35 35 37 38
26 18 16 17 20 24 36 54 91 60 65 62 72 82 88 86 64 62 61 60 70 80 82 77 65 54 47 46 43 42 39 38 40
28 22 20 20 18 35 47 65 68 67 74 85 73 59 50 53 57 56 53 78 97 100 90 72 56 51 55 52 56 56 54 51 49
27 28 26 25 20 20 38 59 58 58 60 70 68 74 52 51 56 74 87 95 97 82 60 58 62 62 65 60 58 56 63 67 64
27 32 37 37 32 27 21 23 30 36 40 42 45 52 57 76 87 96 100 100 93 65 56 63 67 72 78 79 75 61 54 59 71
33 33 36 42 51 50 47 47 49 54 58 68 72 77 86 96 100 98 95 92 69 59 68 74 70 66 58 58 68 80 80 70 58
38 38 37 40 44 51 59 65 68 72 74 82 83 92 98 83 76 71 69 63 80 86 82 77 68 64 67 66 60 54 53 52 54
68 64 53 50 43 40 40 41 41 46 48 45 43 46 46 50 58 64 66 64 66 72 77 70 69 71 72 67 61 53 51 53 55
40 50 58 54 56 66 67 68 68 70 69 70 72 68 65 68 68 78 85 96 100 89 85 93 94 87 70 60 58 60 52 46 44
19 20 21 23 26 28 28 28 28 30 28 34 53 70 73 74 61 65 70 71 75 73 76 86 78 73 66 59 54 50 48 44 46

GFSFLT1_250_rhum_027.txt.gz
RH
21 21 30 27 27 19 17 17 19 21 23 20 16 16 24 47 100 100 46 74 100 100 93 73 59 53 45 39 46 48 50 46 44
23 25 33 28 19 16 17 19 22 23 23 16 14 17 32 100 97 65 82 100 100 100 92 80 65 56 38 43 51 51 48 43 37
27 25 21 15 15 17 20 22 27 27 18 14 16 20 43 100 100 100 100 100 100 100 100 88 74 53 37 60 57 50 43 41 33
25 19 16 16 19 29 34 36 29 18 14 16 18 30 87 72 99 100 100 100 100 100 98 94 73 57 45 56 58 47 34 35 37
17 15 17 21 32 42 42 28 18 15 14 16 22 43 68 100 98 72 94 100 100 90 75 81 77 53 42 50 67 54 43 34 36
16 19 26 42 49 41 28 19 15 14 16 18 29 94 99 66 62 88 100 100 100 98 99 88 72 55 39 44 58 58 55 40 40
18 28 50 57 43 27 20 17 14 15 18 24 78 99 99 100 100 100 100 100 100 100 100 87 78 60 40 42 55 62 68 53 43
25 52 56 42 26 22 19 15 12 16 20 33 88 99 83 100 100 100 100 100 100 100 94 93 79 67 60 51 52 57 76 72 58
53 57 43 35 26 22 15 11 13 18 22 24 80 80 100 100 100 100 100 100 100 100 99 89 76 68 60 50 59 55 71 78 75
63 51 37 24 24 22 16 13 13 19 25 28 39 66 100 100 100 100 100 100 100 100 95 85 68 67 59 57 60 86 98 86 80
53 39 28 24 25 23 17 16 15 20 25 33 37 70 100 100 100 100 100 100 94 88 81 83 71 54 58 61 95 100 94 88 78
39 24 20 22 25 24 20 20 20 19 24 30 52 67 62 81 82 90 90 88 86 83 66 60 58 50 55 84 95 98 83 62 50
28 27 24 23 27 28 26 26 25 19 22 27 37 50 66 57 46 55 61 68 56 51 55 49 51 66 85 94 93 100 68 62 64
41 28 24 26 29 29 30 34 35 31 24 21 27 39 41 39 42 38 42 46 48 49 61 72 85 93 99 93 88 86 63 63 73
52 36 31 36 37 34 33 36 37 41 49 50 45 41 40 42 44 46 51 60 67 71 75 85 93 100 100 100 100 80 66 62 64
67 62 50 45 48 51 46 42 40 37 38 44 53 62 68 70 70 72 75 82 80 79 73 70 69 70 65 60 62 69 72 78 77
53 43 42 47 50 45 48 56 58 54 53 54 54 54 56 54 59 62 62 61 64 65 66 68 70 74 82 90 89 86 84 82 85
22 19 18 18 17 18 21 24 29 33 32 33 40 52 66 85 95 92 87 78 71 74 79 87 88 85 78 73 73 72 67 70 68
15 14 14 14 14 14 14 16 18 20 20 19 19 18 18 22 29 67 88 87 89 78 71 86 84 71 74 80 80 79 67 62 64
21 21 20 18 16 15 15 14 14 15 15 16 15 14 14 13 13 14 19 23 31 43 58 72 88 85 75 85 85 86 78 71 61

GFSFLT1_250_rhum_030.txt.gz
RH
16 16 20 26 27 23 27 22 21 18 17 16 18 23 29 30 26 21 17 32 49 97 93 80 72 100 98 74 54 57 48 31 40
16 16 17 20 22 26 22 19 16 15 15 19 25 31 34 29 22 17 18 31 66 100 74 58 100 100 100 73 71 62 57 36 52
20 19 17 16 22 26 20 15 15 19 24 35 35 40 32 24 16 16 23 42 89 90 73 92 100 100 100 83 78 66 68 46 44
18 18 22 25 25 18 15 16 21 29 40 44 43 32 21 17 16 18 30 66 100 87 92 99 99 100 100 92 82 85 60 50 36
22 26 35 26 18 14 16 25 47 54 54 44 29 19 16 16 17 23 39 86 100 92 87 84 94 100 100 100 82 78 71 51 39
29 29 24 16 15 20 29 42 56 56 41 27 20 17 16 17 19 29 44 78 89 89 79 96 100 100 100 100 100 90 71 66 56
35 24 15 16 20 32 52 64 49 33 26 22 17 14 15 20 22 44 95 90 100 94 89 100 100 100 100 100 97 94 85 77 62
33 16 16 20 36 59 62 47 33 25 23 17 13 13 16 20 29 67 87 97 100 69 100 100 100 100 100 100 100 100 84 75 57
20 17 22 45 64 58 47 37 25 23 20 17 14 12 17 20 24 76 94 94 82 80 100 100 100 100 100 100 100 86 84 83 69
16 24 37 59 55 48 34 26 24 26 22 18 16 14 15 20 26 58 79 73 96 100 100 100 100 100 100 95 93 96 91 75 71
21 36 61 59 52 32 25 23 24 27 23 20 21 20 17 18 23 24 48 80 90 99 100 97 96 100 96 91 90 83 81 69 73
34 58 74 62 40 31 24 23 24 25 27 28 26 26 21 21 21 23 24 31 51 88 95 95 95 91 90 84 78 80 81 85 65
51 76 80 69 52 39 29 26 31 31 30 30 34 36 35 29 21 21 25 33 44 52 63 71 77 74 69 59 66 69 74 62 64
77 88 83 69 60 52 42 36 38 39 39 35 33 33 36 43 49 49 43 34 33 36 39 40 40 42 48 52 50 50 52 62 74
78 79 78 70 74 63 50 46 47 50 48 47 48 46 42 40 40 43 46 53 59 60 62 62 62 63 66 69 74 77 82 85 87
67 68 68 62 46 38 36 30 26 26 24 25 36 53 56 52 49 52 50 46 48 49 51 55 60 63 62 63 62 66 73 76 79
45 46 40 33 20 15 15 15 14 14 14 14 16 20 21 21 23 26 28 30 38 47 55 61 66 67 66 70 70 69 72 79 90
18 17 16 17 17 17 18 18 19 19 17 17 16 16 16 17 18 17 17 17 18 19 19 20 21 22 24 25 26 27 26 28 32
19 19 20 20 19 18 18 19 20 20 18 16 15 15 15 15 18 22 23 23 23 23 23 23 25 29 31 28 26 26 25 24 24
24 22 22 20 18 18 19 18 16 15 14 14 14 14 14 12 12 13 20 23 24 24 26 25 24 25 25 25 24 23 26 34 42

GFSFLT1_250_rhum_033.txt.gz
RH
49 37 34 32 25 19 16 16 16 17 16 17 20 16 15 13 17 19 23 31 36 32 27 23 20 36 76 95 72 89 99 94 68
63 55 47 36 28 22 17 17 22 23 20 19 18 12 13 16 21 26 35 38 37 29 23 22 35 66 94 84 98 97 99 100 84
78 56 37 28 20 18 19 23 21 17 18 14 13 14 20 28 41 43 41 38 30 21 18 23 31 74 98 94 100 100 89 100 100
74 51 26 20 20 24 28 26 17 14 15 17 21 31 40 43 51 47 37 25 19 18 20 28 55 85 98 100 100 93 100 100 100
74 32 22 21 31 29 31 25 14 15 18 28 40 52 60 50 38 29 22 18 16 17 23 41 65 100 100 100 90 100 100 100 100
53 37 26 28 36 33 27 17 15 20 33 51 56 43 31 25 23 21 18 16 16 19 27 47 76 99 84 98 91 86 100 100 100
42 31 48 50 46 32 25 15 20 37 55 52 42 35 25 21 19 14 13 13 17 21 29 46 83 100 100 100 98 97 100 100 100
36 44 71 65 49 36 20 17 38 54 50 42 31 26 24 22 18 15 13 14 18 26 49 70 81 98 93 99 94 100 100 100 100
48 67 82 73 40 39 17 32 53 53 40 31 23 24 25 24 19 18 17 15 18 23 59 70 95 100 100 93 90 100 100 100 100
64 67 63 53 41 31 23 48 56 45 33 25 24 24 25 26 23 23 22 18 17 22 30 70 93 100 98 97 100 100 100 100 100
60 58 60 56 34 23 42 55 56 46 36 26 26 26 26 28 32 32 30 25 21 22 22 27 60 83 73 83 92 100 100 100 100
62 68 60 52 30 40 69 67 66 55 49 40 35 36 38 37 31 28 33 41 39 27 22 25 26 37 63 70 82 79 92 100 100
69 65 55 22 34 56 70 68 61 62 58 54 47 44 44 43 42 42 39 34 32 38 46 46 34 27 29 35 41 53 64 80 75
75 63 21 28 62 74 66 68 73 53 42 38 37 32 29 26 23 24 30 40 50 49 43 40 41 47 52 53 47 43 43 42 41
62 19 19 33 53 51 61 63 40 27 21 19 18 16 15 15 15 14 15 16 18 21 26 34 40 47 48 44 44 51 58 61 62
17 21 24 24 27 30 27 22 18 20 22 24 21 20 20 18 18 18 18 17 16 16 15 15 16 18 19 23 28 34 40 44 45
24 22 23 20 20 20 22 22 22 20 20 19 20 21 18 17 17 17 16 15 16 16 16 16 16 16 17 18 18 19 20 24 26
21 20 20 21 20 23 22 24 22 20 19 20 20 21 20 22 25 22 18 16 15 15 16 16 16 15 15 15 16 17 17 17 17
22 22 24 23 24 25 23 22 22 23 21 20 18 19 19 20 23 24 22 22 22 22 22 21 20 18 17 17 17 18 17 16 16
25 25 26 29 26 22 22 21 23 23 21 19 18 18 16 14 13 15 16 18 19 20 23 24 24 23 22 22 22 22 23 23 23

GFSFLT1_250_rhum_036.txt.gz
RH
54 83 91 71 93 81 68 50 31 18 17 20 19 20 16 14 12 13 13 13 16 21 25 30 35 48 44 36 30 30 37 66 56
58 80 86 91 75 78 69 55 25 20 19 22 22 17 15 14 13 15 18 22 26 33 48 47 43 41 37 27 26 28 48 92 81
94 94 79 62 70 92 78 52 32 21 19 23 22 17 15 15 16 25 34 43 55 56 51 44 41 34 28 23 24 40 63 78 89
90 100 89 99 99 60 52 37 22 32 25 26 26 19 16 20 32 42 47 46 41 39 32 29 24 20 19 24 31 45 80 93 100
100 100 89 66 54 43 38 27 27 37 30 30 31 21 22 34 49 42 34 26 23 23 23 22 20 18 19 20 35 51 91 100 100
85 85 65 62 57 53 40 34 39 43 31 32 32 22 34 46 42 34 22 21 22 19 15 14 14 16 19 26 43 67 99 100 99
84 77 72 61 61 52 40 40 40 40 39 37 31 30 42 44 37 23 20 22 23 18 17 15 14 16 20 25 37 63 84 100 100
80 75 76 66 58 40 40 43 44 46 50 43 25 40 45 37 26 22 22 24 23 21 21 20 17 17 24 27 43 72 76 92 100
66 68 67 64 51 43 40 46 46 58 47 31 44 55 50 38 28 26 25 25 24 26 27 25 21 19 21 40 70 61 78 97 96
79 77 70 58 46 42 63 54 61 52 28 41 61 61 53 52 48 40 43 44 41 38 33 28 28 25 21 22 48 49 67 93 94
77 68 60 44 37 64 75 64 65 30 30 47 60 56 61 54 52 52 50 48 45 43 42 40 38 34 31 28 23 29 42 58 91
78 67 57 46 60 93 83 72 41 24 36 49 56 58 50 37 35 34 32 23 20 20 20 22 29 41 45 44 39 34 27 32 55
85 76 61 60 86 97 82 35 19 21 31 44 40 34 27 23 19 18 16 15 14 14 14 14 14 15 16 20 39 44 43 40 38
92 97 100 89 98 89 53 20 18 23 24 24 22 20 18 19 19 18 18 17 17 17 17 17 17 16 16 15 14 14 17 22 28
100 100 100 92 93 49 25 22 20 20 19 19 21 22 21 20 20 20 20 20 19 19 19 19 19 18 17 16 16 16 16 14 14
80 96 99 96 48 29 23 22 21 21 24 23 21 24 24 24 24 24 24 22 22 21 21 22 22 20 18 16 15 15 15 16 17
100 100 82 44 26 22 22 22 22 22 24 23 24 24 22 23 26 26 24 22 20 20 20 22 21 19 17 15 14 13 14 14 16
94 61 30 26 23 22 25 26 25 25 26 25 24 23 24 26 33 30 25 21 20 21 19 18 17 16 14 13 13 13 14 16 17
50 40 27 24 24 27 29 28 27 29 28 25 25 24 25 28 29 32 26 23 26 24 20 18 18 17 16 17 18 18 17 17 17
29 27 27 28 29 31 30 29 29 28 29 29 27 26 24 24 22 21 21 23 23 20 18 18 19 21 22 23 23 23 22 22 22

GFSFLT1_250_rhum_039.txt.gz
RH
48 59 72 62 62 58 53 53 48 39 47 76 48 36 20 18 21 20 22 19 14 15 18 24 30 32 36 37 43 39 43 46 40
39 51 82 84 78 60 58 56 52 51 91 48 34 24 24 24 20 22 25 16 19 30 44 46 48 53 58 54 46 47 42 41 32
42 42 75 99 100 94 90 75 64 79 55 42 40 29 29 26 26 26 26 19 37 49 43 37 30 32 37 36 36 35 31 28 26
51 50 62 78 100 94 88 100 99 69 53 51 47 32 34 37 39 34 24 26 42 40 32 24 24 21 21 22 23 22 20 19 20
78 85 84 73 77 88 83 94 80 61 52 56 36 37 37 39 38 29 25 33 42 37 24 21 22 23 20 16 14 15 16 17 19
83 83 90 83 76 60 85 73 70 67 59 52 39 39 39 40 32 26 32 37 34 25 21 22 22 21 19 18 16 14 13 14 18
69 82 82 81 72 63 64 70 74 62 59 47 39 44 44 43 31 36 52 47 36 30 30 29 27 26 24 22 20 18 16 16 18
76 82 81 77 82 78 64 66 68 67 48 41 48 52 54 37 29 50 54 52 52 48 47 43 43 41 40 36 29 25 20 18 18
97 84 80 80 79 88 86 78 70 58 50 48 68 64 52 32 30 51 49 51 51 50 47 45 43 40 38 38 39 38 33 26 22
98 98 86 88 92 88 87 82 71 62 55 59 62 70 41 26 33 48 50 46 38 33 31 27 20 16 15 17 19 25 35 43 40
94 99 98 96 97 95 93 80 73 69 77 76 81 47 27 24 30 30 27 22 17 16 16 15 14 13 13 14 14 14 14 18 34
96 99 100 95 99 91 85 76 72 87 100 98 76 27 17 19 19 15 15 17 19 20 20 20 20 19 18 17 16 15 14 15 16
94 100 100 91 89 88 82 85 78 90 100 85 48 18 16 16 16 19 19 18 17 19 20 20 20 20 20 20 21 20 20 20 17
83 90 88 80 90 89 85 93 92 97 92 50 28 18 16 19 19 20 19 20 21 22 23 24 25 25 23 22 20 20 19 19 18
68 68 97 98 100 88 100 100 100 92 54 36 21 17 19 22 21 22 23 24 24 23 23 24 26 27 26 23 21 21 21 21 20
89 99 86 100 100 100 100 100 88 62 31 20 18 20 22 24 25 28 27 25 25 26 27 28 27 28 24 21 21 21 21 20 18
99 100 100 100 100 100 100 83 43 29 22 22 24 25 25 28 29 30 28 27 27 26 26 26 27 26 26 23 20 21 19 17 15
100 100 100 100 100 95 64 49 29 22 24 26 27 30 33 32 34 32 32 31 30 29 30 28 26 25 25 24 21 18 16 14 15
100 100 100 98 85 62 43 27 26 29 28 29 32 34 35 36 35 46 45 41 39 38 34 28 26 26 25 23 19 17 15 16 16
98 100 85 64 50 30 29 30 33 35 36 39 38 36 34 33 36 39 42 42 39 38 31 29 27 26 24 20 17 17 18 19 19

GFSFLT1_250_rhum_042.txt.gz
RH
58 58 59 57 52 53 52 75 89 64 58 72 73 47 46 70 46 41 39 32 27 23 21 21 17 25 37 44 47 52 53 56 53
52 55 56 56 62 65 55 55 76 87 100 99 85 90 95 60 48 53 43 31 30 26 24 20 23 37 40 34 30 31 32 44 46
60 52 51 51 58 68 77 65 65 95 93 77 82 93 82 61 55 56 43 34 31 28 24 22 28 40 37 23 20 23 24 25 26
62 52 51 59 74 80 84 93 100 87 77 67 64 71 61 63 61 52 38 34 31 29 24 27 34 32 24 21 22 25 23 20 19
91 80 80 93 100 100 98 80 63 58 65 65 58 57 58 64 60 38 40 46 37 32 24 34 42 31 27 24 24 23 21 20 19
97 100 100 100 100 97 90 78 71 71 68 65 72 72 67 69 53 48 45 51 39 30 28 38 48 44 41 42 42 40 37 32 28
97 82 94 93 93 94 96 86 76 76 78 83 78 78 78 70 61 55 52 51 42 25 31 44 49 49 46 43 38 37 37 37 36
100 90 89 81 79 81 91 95 92 94 87 86 85 82 84 75 65 64 59 55 37 26 34 50 50 44 39 33 26 19 16 18 22
100 99 95 88 78 89 81 98 93 96 96 93 94 92 86 75 69 77 71 50 28 27 32 39 32 19 16 16 15 14 15 15 15
90 98 96 90 92 92 87 79 81 97 100 100 98 87 80 74 85 83 75 42 21 22 21 15 15 15 16 16 16 15 15 15 16
73 80 85 94 87 76 78 75 78 95 100 98 90 88 82 70 91 85 68 23 18 16 15 16 20 19 20 19 19 20 20 20 21
94 94 91 90 82 70 72 72 74 98 96 100 99 92 81 99 100 87 41 18 16 15 17 19 19 19 20 18 20 21 24 25 26
57 57 54 51 53 59 48 70 82 95 100 100 100 99 89 100 100 66 28 17 17 17 19 19 19 20 21 22 23 23 24 25 27
19 18 20 22 26 46 60 81 93 97 95 100 100 100 100 100 78 48 22 19 20 20 21 22 23 25 26 25 24 25 26 26 27
21 22 24 32 47 63 83 88 93 98 100 100 100 100 100 88 61 24 20 21 24 24 26 26 28 29 29 28 28 27 26 29 28
19 22 28 53 64 80 87 93 100 100 100 100 100 100 86 42 24 22 23 26 27 28 28 29 30 31 35 35 33 32 31 32 28
24 21 32 86 92 93 100 100 100 100 100 100 99 71 44 26 24 26 29 31 32 33 33 31 33 36 38 37 36 35 34 32 29
23 23 29 82 83 88 96 100 100 100 100 82 67 42 26 27 30 31 34 38 34 33 35 40 41 40 38 39 38 35 32 28 25
27 28 35 68 82 97 98 92 100 87 69 47 30 30 33 39 44 49 43 37 37 41 46 49 47 42 37 33 29 27 25 24 23
29 36 53 70 82 88 94 93 77 59 43 29 32 38 43 42 43 43 46 46 56 59 57 55 49 41 35 31 27 23 23 22 21

GFSFLT1_250_rhum_045.txt.gz
RH
27 27 33 40 49 56 56 57 58 52 44 55 59 46 66 99 86 66 64 64 56 50 48 43 30 32 28 23 20 25 38 37 25
58 54 52 56 60 62 61 52 46 54 65 79 72 70 85 80 74 64 58 54 56 58 51 39 32 33 29 22 24 30 32 24 21
62 66 73 69 64 70 71 65 58 67 79 99 100 72 59 57 57 61 56 54 60 60 60 46 38 33 29 24 28 35 25 23 24
73 72 74 82 82 94 95 81 80 96 100 100 96 83 66 60 64 64 62 66 72 65 63 50 40 40 30 26 36 40 36 34 30
86 83 86 92 100 100 100 97 94 100 100 99 88 77 78 73 71 77 75 71 73 70 65 56 47 41 31 29 42 45 43 39 38
88 86 87 86 93 96 99 95 100 100 100 95 94 87 88 86 89 83 78 77 82 70 70 64 54 43 28 29 42 50 50 43 36
100 100 98 95 99 100 100 100 92 82 74 74 83 89 96 92 92 97 92 87 90 70 66 70 59 42 25 32 44 44 38 26 17
100 100 100 100 100 100 100 100 100 100 93 83 82 75 79 74 72 82 96 97 86 73 75 68 65 39 24 27 27 17 16 15 16
100 100 100 100 100 100 100 100 90 78 71 72 74 73 79 73 74 92 100 93 92 85 94 78 64 31 24 22 15 14 15 15 16
81 86 94 100 99 100 100 95 76 71 76 79 82 86 69 62 74 99 100 100 100 99 100 89 65 24 19 17 14 15 16 17 19
57 60 64 56 56 70 68 70 77 74 78 81 64 66 63 58 71 95 100 97 98 100 100 96 53 20 17 18 19 19 18 20 21
100 100 100 87 97 92 81 84 76 67 63 58 49 49 53 63 99 99 99 100 100 100 100 80 42 19 21 23 23 22 22 24 25
45 73 89 67 72 61 51 49 41 26 27 34 50 68 74 84 100 100 100 100 100 100 100 61 34 20 23 23 24 25 27 28 29
21 23 22 20 19 17 16 18 21 22 29 40 56 79 96 100 98 100 100 100 100 100 79 51 23 22 25 26 27 27 29 30 30
19 20 20 20 19 16 16 20 24 26 42 56 74 87 90 94 94 99 100 100 100 85 52 25 24 27 29 30 32 33 32 31 34
18 20 21 19 17 18 22 19 20 60 78 85 93 89 92 100 100 100 100 100 79 46 27 26 28 31 34 39 35 34 37 37 40
18 21 20 18 18 18 19 20 19 34 76 75 80 94 100 97 100 98 86 67 48 32 29 32 36 40 38 36 36 43 46 47 46
46 40 28 22 18 18 20 21 19 24 55 67 88 94 92 98 85 68 50 33 31 32 35 36 38 39 36 39 49 52 52 52 53
66 59 30 23 19 18 21 20 20 26 44 69 90 88 88 69 55 44 34 32 32 35 37 39 38 35 37 46 52 54 54 53 47
42 43 27 25 26 26 21 19 21 24 44 80 95 80 64 54 41 36 34 33 37 42 44 43 40 38 44 50 54 55 52 46 43

GFSFLT1_250_rhum_048.txt.gz
RH
44 31 31 32 29 31 35 38 41 47 54 58 62 59 48 55 69 83 80 67 56 48 54 53 52 50 47 48 44 40 33 31 24
43 50 54 49 47 46 51 55 61 62 65 69 69 61 54 60 79 96 62 60 57 49 48 50 55 55 53 53 50 48 42 28 24
56 59 52 55 61 64 66 68 69 76 76 74 77 78 85 92 100 98 75 73 72 68 62 60 62 65 59 56 50 49 46 28 24
70 72 76 76 76 66 64 68 71 67 74 88 91 99 87 99 100 98 93 84 80 73 81 83 76 72 70 60 57 49 48 28 25
92 81 72 71 80 79 84 74 76 79 85 79 96 100 92 89 90 98 89 84 85 78 77 78 76 74 70 65 67 64 52 27 28
100 100 98 93 84 79 83 89 95 94 93 92 100 98 94 86 84 82 89 86 82 78 82 75 85 92 78 73 79 74 54 27 31
98 100 100 100 100 100 100 100 100 100 100 100 100 100 95 95 95 82 70 67 68 79 80 77 92 96 90 87 91 91 62 24 26
100 100 100 100 100 100 100 100 100 100 100 100 92 92 97 89 95 74 58 64 83 85 70 73 92 95 93 86 92 100 65 24 25
41 52 97 100 100 100 100 100 100 100 100 100 100 100 100 93 78 74 62 62 68 71 72 95 89 92 84 99 100 100 60 26 19
23 25 27 34 47 63 73 87 90 78 68 71 61 63 52 57 66 79 69 61 65 60 86 100 100 94 97 100 100 100 54 22 18
17 18 21 23 25 45 63 70 67 55 66 71 63 72 69 72 66 60 49 47 66 94 100 100 98 96 97 100 100 93 45 22 19
12 16 20 23 25 45 51 76 95 96 92 84 68 61 36 24 24 26 30 42 66 84 100 100 100 98 100 100 100 78 38 26 21
12 14 15 18 21 21 24 27 40 56 44 37 26 16 21 21 25 29 35 66 77 89 100 98 99 100 100 100 99 68 44 24 25
15 13 14 17 18 19 20 22 22 21 18 17 17 20 19 24 45 60 55 65 88 95 84 96 100 100 100 99 86 56 28 27 29
16 14 14 17 17 17 18 20 19 18 18 18 20 21 19 38 89 81 88 92 93 100 100 100 100 100 98 79 42 31 30 30 32
27 27 34 25 18 17 17 18 17 17 17 18 16 20 20 19 52 62 77 85 91 92 99 96 93 86 69 46 40 32 32 36 38
26 32 34 40 40 26 18 16 17 17 18 18 18 18 20 19 26 53 67 78 87 87 88 76 66 58 45 34 32 34 34 36 38
24 37 47 39 46 40 33 25 21 21 22 20 19 17 22 23 32 41 52 64 65 73 70 62 52 40 34 34 35 36 36 38 38
26 34 44 37 31 35 32 34 45 46 36 21 20 19 21 22 33 38 42 60 60 61 58 48 44 39 35 35 36 38 43 47 47
30 26 29 33 35 38 39 51 53 48 29 25 27 25 23 22 22 38 46 60 60 59 52 47 48 49 50 54 58 61 63 61 52

GFSFLT1_250_rhum_054.txt.gz
RH
26 29 34 35 31 32 30 27 32 29 30 34 35 34 39 44 40 44 51 56 57 57 54 67 64 75 79 78 67 65 63 56 60
19 19 21 29 35 37 34 34 35 38 35 34 39 42 47 46 47 51 58 65 68 75 72 79 89 82 78 81 79 82 80 76 68
20 21 22 21 22 26 40 42 45 43 53 60 58 58 58 59 67 70 70 75 77 80 99 100 97 93 92 88 81 77 74 76 69
28 26 25 24 23 23 28 31 35 53 68 70 68 77 84 84 90 90 93 84 92 100 100 99 100 98 90 85 81 82 73 61 61
27 30 29 30 31 29 30 29 32 48 60 66 86 89 88 94 100 100 97 90 97 100 93 91 88 87 94 88 82 86 85 82 71
42 38 42 40 40 39 37 36 40 54 62 60 77 89 92 97 94 98 95 87 92 91 92 85 94 80 99 93 84 66 52 66 90
38 42 37 41 40 40 39 36 35 37 38 51 76 90 99 99 88 94 93 92 89 93 99 100 100 93 79 58 46 48 48 60 81
31 30 29 27 27 30 34 33 31 31 38 39 43 51 56 64 66 61 65 88 100 100 97 83 60 52 50 48 45 31 30 43 52
29 25 23 19 17 19 22 25 25 24 23 24 26 32 34 34 36 41 37 30 31 30 42 54 66 54 44 41 25 16 16 18 28
18 15 14 14 15 16 16 16 16 16 16 17 17 16 16 15 15 15 16 18 21 30 43 61 59 31 25 18 17 16 19 38 57
16 14 16 20 21 20 20 18 16 15 14 13 14 14 14 14 15 14 15 15 18 23 24 28 21 20 19 20 18 33 53 58 76
16 19 23 28 19 17 21 23 21 21 20 17 15 15 16 18 19 17 16 16 17 20 22 22 20 19 19 20 29 64 69 85 93
27 26 22 23 24 24 23 22 23 20 21 21 19 17 16 17 16 18 19 18 19 21 22 21 21 20 21 21 20 39 51 82 88
26 30 34 40 49 47 32 22 19 18 18 18 19 20 20 20 21 23 22 19 22 23 23 21 21 21 20 20 22 23 38 59 87
61 43 37 37 34 28 34 38 30 22 19 18 18 19 20 21 22 20 21 22 26 25 23 22 21 22 26 23 24 30 36 50 66
44 42 54 45 42 36 36 36 37 32 30 26 21 19 20 24 30 34 42 45 39 30 27 24 23 23 27 23 24 27 32 40 56
98 81 72 77 61 43 38 31 29 28 26 27 25 24 22 24 30 35 42 52 60 60 49 36 29 36 39 32 28 25 27 29 34
85 85 75 66 68 64 51 55 34 32 41 47 38 30 25 25 28 33 44 50 59 50 44 48 53 68 65 41 34 31 29 30 37
72 88 79 100 99 98 61 48 35 31 28 30 30 29 28 28 26 25 33 39 40 47 55 65 75 91 78 43 33 32 37 37 39
96 100 100 100 100 92 80 63 47 41 34 32 32 33 30 30 27 27 28 34 40 44 51 59 73 82 80 67 42 43 40 42 49

GFSFLT1_250_rhum_057.txt.gz
RH
14 18 22 22 27 28 28 30 35 36 34 34 35 36 35 37 37 40 42 43 43 50 60 70 71 74 83 78 89 94 99 90 93
14 14 16 18 18 18 18 20 20 20 28 30 35 40 44 49 48 52 58 60 58 59 59 70 78 81 87 99 96 97 100 95 92
18 19 20 22 24 23 21 23 24 23 24 27 29 29 38 41 49 60 65 61 54 70 79 84 99 96 100 99 93 90 81 85 83
18 20 20 21 20 20 22 26 30 28 30 33 32 33 33 36 35 46 60 62 64 67 80 94 95 89 82 83 81 81 78 79 83
20 22 21 22 20 21 24 24 29 43 44 43 44 39 39 36 33 36 44 54 64 64 69 80 83 82 85 80 86 74 76 95 86
21 20 20 21 20 19 20 30 38 40 41 40 48 45 41 39 39 36 38 39 46 51 68 85 82 76 78 63 77 86 83 86 72
18 18 19 19 23 26 29 40 38 30 33 32 33 32 34 37 36 34 36 41 40 42 47 52 51 55 56 68 70 46 50 61 64
22 24 25 26 28 33 35 29 29 26 24 23 22 22 21 25 25 26 25 24 24 28 30 27 25 28 28 22 23 26 45 65 31
31 28 31 31 33 32 26 20 19 17 17 14 15 15 16 17 19 19 20 20 18 18 17 16 15 15 16 16 20 20 22 22 19
33 35 34 34 28 23 21 18 17 16 14 15 16 16 17 17 16 16 14 13 14 14 13 14 14 15 16 16 19 20 22 19 18
46 40 34 32 26 21 22 20 17 16 20 29 28 20 18 17 16 16 15 14 14 14 14 14 17 18 20 19 19 21 20 20 18
47 43 34 34 30 27 28 25 22 20 21 19 18 19 20 19 18 17 18 17 17 16 16 16 18 21 25 23 20 22 20 18 19
51 52 47 39 36 31 30 29 26 25 26 28 28 26 24 20 18 18 17 17 19 19 20 22 24 25 29 30 28 25 23 19 20
63 66 57 51 62 62 64 54 42 38 36 37 34 29 32 34 27 21 18 18 19 22 24 26 27 28 31 34 33 29 26 23 21
69 76 78 79 69 72 72 59 52 48 48 43 35 30 33 35 33 30 29 25 22 22 23 28 31 36 44 45 41 32 28 27 26
73 68 80 91 91 86 98 89 84 76 73 62 48 51 43 37 33 34 32 28 27 28 26 25 31 42 54 60 62 58 46 35 32
82 78 82 92 92 89 82 77 77 74 71 61 56 52 45 34 32 28 26 26 31 33 28 26 29 38 50 56 64 63 53 51 53
50 53 72 79 68 64 78 82 62 64 61 59 59 56 44 38 39 36 32 29 28 29 28 28 31 37 44 51 54 60 67 74 80
78 68 70 98 95 100 100 100 94 72 70 63 63 60 55 47 47 46 39 36 34 33 32 30 30 30 33 39 50 59 64 78 92
88 87 66 87 100 100 100 99 95 80 73 74 79 73 72 61 57 59 48 42 41 40 41 38 34 32 34 37 40 45 54 58 58

GFSFLT1_250_rhum_060.txt.gz
RH
12 12 12 12 12 15 17 17 17 18 20 18 17 18 20 22 23 28 28 35 38 44 43 44 48 60 62 66 68 72 80 85 90
12 12 12 12 12 14 15 16 16 17 18 18 20 20 20 22 22 22 25 26 27 25 27 30 29 34 48 51 50 61 64 70 76
13 14 15 16 16 16 16 18 18 18 18 19 20 20 19 22 25 26 25 29 35 35 34 31 33 32 33 43 45 56 73 62 60
15 15 16 17 18 18 18 18 18 19 19 19 18 18 19 23 28 29 33 31 35 40 42 39 38 37 39 39 40 41 57 74 80
18 18 19 19 21 21 19 17 17 17 18 17 19 21 26 27 28 30 30 34 34 42 39 43 41 39 37 37 38 42 46 53 45
22 22 22 20 20 20 19 18 19 17 17 21 26 31 33 30 25 23 25 26 26 27 27 28 29 28 31 29 26 27 38 29 28
21 23 22 22 20 19 17 18 18 19 22 27 34 33 26 22 20 19 18 18 16 16 16 18 20 21 23 22 22 20 20 19 18
24 22 20 20 20 20 20 19 23 26 30 29 27 24 22 20 19 17 16 15 14 14 15 16 16 17 16 17 17 17 15 18 18
26 23 23 24 23 24 26 28 29 32 30 26 28 26 21 21 19 17 17 21 25 22 19 18 17 16 15 14 15 16 16 18 18
30 25 26 30 29 30 36 33 38 35 34 34 27 27 25 23 21 19 20 21 19 16 17 20 22 22 20 17 16 16 17 18 19
32 35 35 36 39 42 47 45 44 40 37 35 33 29 26 25 23 22 20 20 22 23 22 20 20 19 20 21 20 19 19 20 20
49 51 50 55 58 58 62 56 49 41 43 40 42 44 41 35 31 31 34 36 35 33 32 25 21 20 19 20 23 23 23 24 26
76 71 70 68 62 56 50 52 56 51 52 50 46 43 46 44 41 45 36 31 29 31 35 34 31 29 26 23 23 27 30 28 29
80 77 73 70 64 60 50 61 68 79 88 75 73 71 72 67 57 51 52 50 42 36 31 28 28 29 29 30 29 27 29 32 36
86 75 59 59 58 53 49 47 47 59 70 73 74 82 75 72 66 63 54 50 46 39 33 32 31 27 26 30 34 30 29 32 42
81 60 75 71 70 65 60 45 40 45 54 65 60 53 50 49 47 53 57 59 61 50 41 41 40 38 31 27 30 30 30 33 40
84 76 72 70 87 81 82 63 58 53 49 45 51 56 50 43 44 49 57 64 69 66 67 64 53 50 39 33 32 33 35 32 35
84 82 81 88 90 87 80 80 86 74 72 58 48 51 52 52 53 51 51 56 61 59 74 74 67 59 50 40 38 36 35 34 36
76 80 85 95 100 98 94 93 94 96 92 87 83 72 74 69 71 75 68 68 64 59 70 79 81 67 58 50 51 49 47 39 36
83 88 99 100 95 94 94 100 100 95 86 84 83 91 91 87 92 99 95 90 87 71 84 88 86 68 64 57 60 60 62 54 49

GFSFLT1_250_rhum_063.txt.gz
RH
13 13 11 12 12 12 12 12 14 15 16 15 15 17 17 17 18 19 18 19 18 20 21 24 25 24 23 30 31 37 34 34 34
13 12 12 13 13 14 14 14 16 17 18 18 18 17 16 16 16 16 17 17 17 19 22 25 26 26 27 29 33 44 44 41 39
13 13 13 14 14 16 16 16 16 16 18 19 19 18 17 18 17 17 18 18 22 24 25 22 21 22 24 29 32 32 36 38 38
14 14 15 14 15 16 16 17 16 17 18 18 17 16 16 16 16 16 19 23 22 25 25 22 20 21 20 24 26 24 24 27 27
16 17 18 18 17 16 16 16 16 17 16 16 16 17 18 17 18 20 24 24 24 23 21 20 19 19 17 16 15 16 19 19 22
20 20 21 21 20 20 19 18 18 17 18 17 18 19 21 20 22 26 28 25 25 25 23 21 19 18 16 16 15 15 16 17 18
22 22 21 19 20 20 19 21 21 21 21 20 24 26 28 29 30 33 31 29 28 26 25 22 19 18 20 26 23 19 19 18 17
25 22 20 19 20 19 20 20 23 26 23 26 27 30 33 34 35 36 34 32 33 29 27 24 21 20 21 19 18 19 21 22 21
22 20 21 20 19 19 22 25 27 27 30 35 37 37 36 40 39 34 35 32 32 28 25 23 22 25 24 23 23 20 20 19 19
25 28 28 27 27 27 31 32 34 36 37 39 44 42 43 43 36 36 37 35 41 41 33 30 29 32 34 32 31 28 22 20 19
32 33 33 35 38 39 37 45 45 52 50 50 47 42 39 37 33 38 40 42 46 45 44 41 38 33 29 29 31 32 31 29 26
46 55 57 58 51 48 58 64 61 63 57 56 52 48 42 38 36 48 54 47 46 49 54 54 50 47 42 33 30 27 26 28 28
67 70 67 65 75 70 75 72 67 63 56 54 49 42 37 31 35 44 57 57 53 53 58 57 57 57 47 44 37 38 34 33 29
85 86 78 79 80 84 82 80 74 63 53 52 51 48 50 34 37 38 39 45 52 54 53 60 63 64 69 62 53 53 53 44 34
100 94 85 81 82 86 86 88 81 63 58 60 58 47 50 47 43 39 44 42 52 55 55 62 57 64 65 64 62 58 62 64 53
97 83 90 98 97 90 88 82 82 79 74 59 61 58 56 59 56 58 57 54 48 50 61 58 55 58 55 54 55 58 68 66 57
100 100 100 100 100 98 99 95 95 86 88 88 79 73 64 66 66 63 61 71 64 61 65 56 50 49 54 55 60 58 62 74 71
100 100 100 100 100 100 100 96 81 82 94 100 92 74 73 67 71 79 82 81 79 80 76 66 64 59 57 60 66 76 85 99 82
100 100 100 100 100 100 100 99 92 100 100 97 83 84 93 100 100 97 99 90 87 74 74 79 71 76 71 76 76 85 87 100 93
100 100 100 100 98 100 100 100 100 99 94 92 88 98 100 100 100 100 100 98 94 94 90 86 80 86 82 82 86 89 94 100 98

GFSFLT1_250_rhum_069.txt.gz
RH
19 19 20 19 18 16 14 14 15 14 15 15 15 16 17 16 16 15 14 14 15 15 14 14 15 18 22 23 22 23 25 29 31
22 19 17 16 16 16 16 16 16 16 16 15 17 17 18 19 18 17 15 14 14 14 15 16 16 20 23 24 25 28 31 30 29
20 17 16 16 16 18 18 18 18 18 17 18 19 21 20 18 16 16 15 15 15 14 15 17 21 23 24 27 29 34 33 32 30
18 17 17 18 18 18 20 21 20 20 20 22 24 24 22 19 18 18 18 17 16 16 18 24 27 26 24 26 33 28 28 29 30
21 21 23 22 22 23 24 28 28 30 34 33 28 24 20 19 18 20 20 22 24 26 29 33 31 29 29 24 27 25 27 32 34
29 28 30 30 30 33 37 36 39 39 35 30 25 22 21 21 23 22 23 27 32 32 34 43 37 28 28 26 25 27 31 36 44
35 36 39 39 36 40 43 44 43 40 34 28 24 24 22 24 27 26 26 30 30 35 49 41 34 32 31 28 25 32 41 42 45
38 40 43 44 42 43 46 43 36 32 30 27 26 26 24 25 28 30 32 33 36 48 50 45 37 36 36 32 28 28 36 41 40
57 57 55 47 46 42 39 34 32 31 28 28 28 29 30 32 32 36 41 47 57 50 44 41 42 39 36 32 30 33 35 46 46
71 66 58 50 45 43 39 37 33 35 32 32 34 38 39 40 45 52 50 60 58 57 50 51 44 42 40 41 39 35 36 36 40
65 62 55 48 41 39 40 37 36 32 36 41 47 46 51 56 61 70 66 62 60 59 62 50 50 48 50 47 49 45 51 42 44
65 54 47 43 41 41 43 42 43 47 47 57 54 59 72 79 76 69 76 71 74 70 62 60 58 50 49 52 54 53 55 57 48
54 48 48 48 50 47 48 48 46 48 54 67 73 78 78 83 87 78 79 77 72 65 67 68 61 57 59 62 60 58 80 67 47
55 53 57 63 62 61 59 56 58 68 72 72 84 92 79 93 100 96 95 97 97 83 82 67 72 73 77 74 66 64 80 58 52
58 64 73 68 74 65 63 73 78 79 81 87 100 99 100 100 100 100 100 100 95 85 78 84 94 94 85 85 76 68 58 57 59
84 77 74 78 76 79 76 86 91 94 100 84 76 97 100 100 100 97 96 88 82 82 99 90 100 93 90 84 77 80 77 70 70
82 80 84 80 81 88 95 88 93 96 95 100 99 100 100 100 100 100 100 100 100 98 94 94 95 99 86 79 77 78 93 100 97
79 80 83 83 92 96 99 100 100 100 98 100 95 100 100 100 100 100 100 94 91 92 83 96 100 98 96 96 99 100 100 100 100
79 92 99 88 86 98 92 100 100 100 100 98 100 100 100 100 100 98 100 100 100 99 100 100 97 99 100 98 100 100 100 98 87
86 83 86 89 87 100 100 100 100 100 100 100 100 100 100 100 100 100 100 100 100 100 100 100 100 100 100 100 100 100 100 92 97

GFSFLT1_250_rhum_072.txt.gz
RH
25 21 19 18 17 17 17 15 13 13 17 17 18 18 18 18 19 20 22 23 22 19 16 17 17 16 16 16 18 22 24 23 22
23 24 21 19 19 17 14 14 17 19 20 19 21 21 22 23 26 26 26 26 21 17 17 17 18 21 24 27 28 28 25 24 21
21 19 17 16 16 17 18 20 23 23 23 25 29 31 32 34 34 32 28 25 22 20 18 19 21 22 27 29 33 34 28 26 24
18 18 17 18 19 20 21 24 26 28 29 33 36 39 37 38 38 34 27 24 21 19 20 19 23 27 26 35 40 32 29 27 25
26 31 28 36 35 32 31 32 36 38 36 37 38 37 38 38 31 28 25 24 22 22 22 20 26 30 36 40 36 36 31 28 25
41 54 55 49 43 41 38 35 37 42 42 41 40 37 32 30 29 26 26 24 23 25 27 29 35 41 43 43 43 42 35 34 32
55 54 55 58 58 54 48 47 50 51 45 42 37 35 32 31 30 28 28 26 27 31 36 39 47 45 44 50 50 43 43 42 40
48 49 52 51 50 46 50 53 53 53 47 39 36 34 31 32 31 29 32 33 36 39 45 50 50 49 49 51 50 52 44 43 45
49 51 50 50 50 51 58 60 58 51 42 36 34 33 32 35 34 32 33 34 39 46 53 56 56 58 55 56 51 58 52 48 50
60 58 57 55 52 56 59 63 56 45 39 36 37 39 40 39 37 36 38 42 49 62 63 60 64 68 68 68 61 62 59 61 55
61 59 63 61 62 66 66 59 50 41 39 39 46 51 45 41 44 54 54 64 59 64 77 68 70 64 64 66 72 64 65 64 60
79 73 66 65 62 68 61 50 43 42 42 49 56 56 52 55 54 57 74 75 81 79 78 85 88 96 98 97 78 62 76 70 69
72 62 63 60 54 53 48 45 43 47 61 54 58 57 60 69 72 74 94 72 82 93 100 100 100 100 90 75 73 80 80 72 67
67 63 60 57 50 47 44 46 54 59 61 57 67 74 80 72 86 86 80 92 98 100 98 96 92 84 78 84 87 87 77 63 59
69 62 60 53 53 51 57 61 63 64 66 75 75 88 89 100 100 95 91 81 92 100 100 99 100 100 99 100 97 91 81 76 72
73 73 62 70 66 66 68 64 65 70 67 74 86 92 98 95 100 99 100 100 91 100 100 100 100 100 100 100 94 97 84 79 75
78 77 77 65 63 63 67 61 61 60 64 84 90 75 80 100 100 100 100 100 100 96 100 100 100 100 93 98 100 100 93 85 80
82 76 75 66 63 58 59 61 62 76 77 77 84 82 81 86 100 100 100 100 100 100 100 100 100 100 100 100 100 100 99 98 99
73 82 79 80 68 67 74 72 78 79 87 95 100 83 94 100 100 100 100 100 100 100 100 100 100 100 100 100 100 100 100 93 92
90 73 69 69 67 70 77 72 74 97 98 98 96 83 99 100 100 100 100 100 100 100 100 100 100 100 100 100 100 100 100 100 100

GFSFLT1_250_rhum_075.txt.gz
RH
27 27 28 26 24 21 21 18 15 14 15 16 18 22 24 27 30 33 34 32 31 34 35 31 26 22 20 19 21 20 22 24 29
26 24 24 23 22 20 17 15 16 17 18 23 28 30 35 35 36 38 35 34 34 30 27 24 23 22 22 23 24 24 25 30 34
25 23 21 19 17 18 20 21 27 34 33 34 33 36 39 44 41 38 36 33 31 29 27 26 24 22 22 26 26 27 31 39 41
21 20 21 21 25 34 36 43 44 42 42 42 41 43 45 46 43 38 35 32 28 26 24 26 28 24 27 27 31 34 38 43 48
24 24 24 29 30 32 45 46 53 56 53 50 47 45 48 44 43 36 32 29 28 26 25 26 26 29 31 35 37 39 50 49 48
23 22 21 26 40 45 45 49 50 48 46 43 39 40 42 46 42 36 31 28 28 30 30 28 28 34 39 43 48 45 47 43 47
28 35 39 42 45 46 48 48 50 48 47 45 40 44 48 48 39 36 32 29 32 36 34 37 34 40 49 53 61 55 51 50 53
28 34 44 47 46 47 54 56 54 52 45 45 46 50 51 43 37 34 32 34 38 36 37 42 46 53 57 67 73 68 65 61 62
30 31 34 39 40 44 54 59 60 59 52 48 49 50 46 38 35 32 35 37 38 40 42 46 60 62 59 75 80 80 71 75 75
36 42 44 45 57 70 74 70 68 58 51 49 49 44 38 32 34 38 42 43 42 48 56 63 75 72 79 81 93 88 96 99 85
46 71 88 86 76 74 72 72 63 54 50 50 44 39 34 38 41 48 45 49 53 59 68 70 76 93 91 97 91 100 100 95 78
56 94 85 72 71 70 74 60 57 51 42 37 35 40 42 46 49 54 51 58 56 60 78 90 83 94 93 85 100 100 93 76 70
76 82 74 73 73 79 64 58 49 45 44 39 42 49 52 48 53 64 64 63 76 76 72 89 92 93 100 81 98 100 87 76 74
66 60 69 86 85 74 62 53 49 49 44 54 50 61 56 61 61 63 69 78 88 91 76 81 100 99 100 98 91 100 100 93 97
71 86 97 90 82 72 64 60 58 56 57 57 62 61 63 63 68 71 73 81 91 96 94 90 89 100 87 98 100 100 100 100 83
94 100 94 86 79 80 85 73 65 73 71 66 65 65 66 71 69 67 77 89 97 100 92 100 100 100 100 100 100 100 100 100 88
100 100 91 88 83 78 84 80 83 78 74 70 67 67 71 67 68 67 86 100 100 100 100 100 100 100 100 100 100 100 100 99 100
100 100 100 96 89 84 77 81 89 84 75 75 72 58 69 68 71 74 94 98 99 100 100 100 99 100 100 100 100 100 100 100 100
100 100 100 94 88 82 83 97 91 76 77 70 70 66 68 58 62 59 75 78 76 84 96 89 100 100 100 100 100 100 100 100 100
98 94 94 90 85 84 96 92 84 77 66 55 57 66 55 56 52 49 52 61 68 83 80 79 88 99 100 100 100 100 100 93 98

GFSFLT1_250_rhum_078.txt.gz
RH
62 50 42 34 26 25 23 22 21 16 18 21 31 35 38 39 40 41 42 43 41 38 35 32 28 24 23 23 25 26 26 27 29
37 31 27 25 23 22 20 19 20 26 33 30 38 43 42 44 43 40 42 42 38 38 36 30 27 25 29 30 29 27 30 31 34
29 27 26 25 21 20 21 22 26 30 40 39 42 43 45 45 42 40 38 38 40 40 35 32 26 29 33 34 37 33 37 36 41
24 22 22 22 22 23 23 24 33 44 44 44 47 49 45 46 44 40 38 38 38 38 35 30 26 31 34 36 38 42 43 48 51
26 27 26 26 25 22 21 40 47 46 46 50 53 50 51 51 40 38 35 37 39 35 30 27 28 32 38 39 40 49 56 52 58
32 31 28 25 23 23 31 43 47 45 44 42 51 52 56 46 40 38 38 39 38 30 27 30 34 38 39 43 56 61 68 62 61
33 31 27 26 24 26 31 31 34 38 41 59 60 61 50 47 44 42 39 34 30 27 27 36 37 39 42 49 55 73 79 77 81
27 26 27 27 30 30 33 38 48 54 68 65 61 56 53 46 45 40 35 28 28 30 35 37 43 49 55 65 71 68 82 92 85
31 32 33 34 34 35 38 45 61 71 66 61 53 56 51 45 40 38 36 33 35 38 40 46 53 60 61 65 77 78 82 100 89
38 40 42 40 39 40 40 43 61 70 64 56 58 56 50 41 38 35 39 44 48 49 55 62 63 64 69 75 82 81 77 100 100
52 49 45 42 41 41 47 52 55 52 58 57 55 50 44 39 40 43 46 51 56 54 61 61 71 70 78 89 99 79 85 100 100
61 53 52 50 49 54 59 53 56 75 67 66 56 49 47 49 51 54 60 56 56 63 65 66 69 68 74 97 100 90 87 100 100
64 60 60 64 65 65 60 68 92 80 68 59 51 49 54 56 58 64 60 62 64 72 71 74 69 75 94 95 100 88 100 96 100
68 69 75 75 68 63 76 100 87 73 72 66 69 67 66 64 63 70 72 74 68 57 60 77 85 85 91 100 100 100 96 100 100
83 83 80 77 77 96 100 100 93 97 83 84 86 78 71 69 73 75 80 70 61 52 65 84 84 92 100 100 100 100 100 100 100
91 85 88 88 100 100 100 99 100 98 92 90 84 83 73 78 73 89 75 61 51 54 71 81 78 83 100 100 100 100 100 100 100
91 96 93 99 100 96 94 100 100 94 93 88 89 79 87 96 83 70 64 52 52 59 68 68 67 80 98 100 100 100 100 99 100
94 99 99 100 94 99 97 90 100 100 98 95 81 83 85 83 68 63 50 44 46 47 53 66 90 97 100 100 100 100 100 100 100
100 100 100 100 100 97 100 100 100 100 91 86 93 86 77 72 58 49 46 45 46 55 91 100 100 100 100 100 100 100 100 100 100
100 100 100 100 95 99 100 100 97 96 79 98 85 87 67 54 46 46 47 53 56 54 44 50 59 73 100 100 100 100 100 100 100

GFSFLT1_250_rhum_084.txt.gz
RH
44 38 42 47 55 63 50 42 28 30 21 21 24 21 29 40 38 37 40 54 48 51 45 44 39 34 32 33 36 36 36 34 30
39 42 56 59 65 51 40 30 26 22 24 26 22 24 29 30 30 36 45 53 55 49 43 40 32 32 33 37 36 40 37 36 36
49 60 65 58 49 42 31 24 25 27 27 25 23 24 25 26 34 40 44 52 48 46 39 35 29 30 36 39 41 43 39 38 39
65 60 50 38 32 28 26 27 30 30 29 27 28 28 29 34 38 42 48 45 46 40 36 29 31 33 38 44 48 46 43 41 44
64 47 33 30 28 30 32 34 35 33 30 29 31 31 34 36 43 45 44 45 41 37 31 33 36 40 45 51 50 48 43 46 48
59 46 36 34 34 36 37 37 35 33 31 30 32 33 37 38 45 48 43 47 39 34 37 35 42 50 53 55 54 52 51 54 47
64 58 50 44 40 38 38 38 36 35 34 34 35 40 43 42 49 47 48 44 37 34 42 41 50 62 63 61 56 52 55 56 48
51 47 45 43 41 39 38 38 35 34 40 39 45 47 49 46 53 54 48 41 36 40 44 53 63 64 64 61 54 56 59 52 47
59 56 55 48 44 43 40 38 38 41 44 52 56 60 58 60 61 52 46 42 44 49 54 69 65 74 68 59 62 62 59 47 48
62 59 60 57 50 48 46 43 43 41 52 58 62 66 70 65 62 50 48 49 56 64 71 67 74 72 72 59 62 64 56 45 51
70 67 67 66 59 60 58 56 50 56 61 62 70 72 68 70 56 54 53 57 70 81 76 78 81 76 64 70 66 59 45 44 53
90 89 85 74 67 73 72 70 75 74 67 68 73 72 74 60 59 66 66 77 82 85 81 83 74 68 64 70 62 51 43 48 64
100 95 85 80 83 77 78 86 82 72 70 72 78 76 65 72 78 78 88 87 89 79 75 76 70 69 68 65 55 43 40 46 54
95 88 88 97 99 96 92 88 82 80 78 82 80 76 82 82 83 81 90 86 76 74 79 76 72 70 68 60 46 39 40 57 65
100 100 100 100 100 100 95 94 86 80 80 80 80 89 91 90 88 88 85 80 75 77 81 77 72 71 65 52 39 38 48 49 42
100 100 100 100 100 99 98 95 85 86 86 84 90 94 99 95 86 93 89 86 85 85 77 79 74 68 55 39 40 35 32 28 37
100 100 100 96 99 100 86 87 86 87 80 90 100 100 100 100 97 100 93 87 83 81 79 74 68 57 40 38 32 25 27 29 36
100 100 100 100 98 94 92 82 93 100 100 100 100 100 100 100 100 98 88 81 82 77 74 69 60 44 37 23 23 25 26 30 32
100 100 98 95 96 94 100 100 100 100 100 100 100 99 93 99 96 100 91 89 86 82 74 61 48 38 30 27 26 28 32 35 36
100 100 100 100 100 100 100 100 100 100 100 100 100 100 97 100 96 89 99 95 94 84 75 59 45 34 31 31 30 31 34 34 32

GFSFLT1_250_rhum_087.txt.gz
RH
41 50 52 52 46 41 54 52 55 40 30 23 24 25 23 23 23 24 27 35 30 43 41 40 36 33 33 29 27 29 34 35 37
45 47 48 50 47 52 58 65 44 30 24 26 27 26 25 25 27 28 32 33 33 40 41 40 35 34 33 31 31 37 40 42 39
46 49 53 58 62 66 59 48 33 27 27 28 29 28 28 27 27 30 30 33 34 42 41 38 36 36 34 33 34 44 46 46 41
53 59 64 70 60 46 38 31 28 31 33 34 33 31 29 27 29 34 32 33 35 39 44 40 41 39 38 36 43 47 57 47 44
63 70 76 68 46 34 32 31 34 36 35 35 32 30 28 29 34 34 36 35 40 44 46 43 44 44 44 48 53 57 54 48 45
77 79 67 56 47 42 37 37 40 39 35 35 33 32 30 33 38 38 43 42 44 50 47 47 46 50 53 58 62 60 55 51 48
76 72 66 61 57 51 46 44 40 38 36 35 35 34 34 38 44 45 52 45 49 54 51 50 53 56 66 67 65 55 58 51 48
63 68 68 62 61 53 48 45 43 41 40 41 42 39 38 44 51 52 53 52 52 50 52 58 64 71 74 70 63 64 60 53 53
54 58 65 62 56 57 57 56 52 49 48 47 45 43 44 58 60 61 62 58 52 56 59 67 75 77 76 71 63 62 52 52 55
70 69 71 72 68 63 66 62 61 56 56 55 55 50 58 66 63 69 64 58 56 61 71 80 82 78 78 62 61 50 48 50 51
82 79 79 80 72 69 72 64 64 61 59 60 65 72 75 70 72 70 61 58 57 68 76 89 78 82 68 62 52 49 47 53 50
92 86 84 87 82 71 70 70 60 58 79 88 84 86 82 83 74 65 65 61 65 74 89 84 81 76 62 54 52 52 54 53 49
95 89 89 89 95 85 80 70 84 92 88 88 92 87 84 80 74 68 72 70 87 92 88 82 80 68 58 61 56 64 59 54 42
92 98 100 95 87 96 97 91 100 100 100 91 91 89 92 79 78 71 84 93 91 98 85 79 68 64 61 63 63 61 60 52 36
90 95 99 100 100 100 100 100 100 100 99 99 95 99 95 83 79 87 89 83 86 78 76 73 70 71 70 68 68 60 55 46 30
98 100 100 100 100 100 100 100 100 100 99 100 100 94 85 99 85 86 86 86 80 79 81 80 78 77 74 70 66 55 41 29 28
100 100 100 100 100 100 100 100 100 99 100 99 94 100 96 87 88 89 85 82 88 90 86 86 86 81 76 73 64 53 33 24 20
100 100 100 100 100 100 100 100 100 100 100 100 89 88 96 100 100 100 97 90 96 93 94 97 88 78 77 69 54 36 31 27 24
100 100 100 100 100 100 100 100 100 100 99 92 84 87 88 91 100 100 99 98 100 100 99 98 84 80 75 60 44 32 32 26 31
100 100 100 100 100 100 100 100 100 90 97 97 91 94 95 100 96 100 100 100 100 100 100 98 88 79 69 50 37 38 29 34 33

GFSFLT1_250_rhum_090.txt.gz
RH
31 31 30 34 46 48 51 50 57 59 60 44 35 25 26 26 24 25 26 27 28 30 29 34 35 42 42 38 38 37 36 36 36
30 28 38 46 48 48 50 57 58 65 59 42 26 27 30 30 28 28 26 27 30 33 33 33 41 42 40 43 40 40 40 40 39
30 28 37 42 50 59 64 63 63 57 46 32 28 31 32 32 30 28 28 30 36 37 39 38 44 43 44 46 46 42 46 47 46
33 37 44 48 60 66 70 55 44 37 30 28 32 36 35 34 32 32 31 33 40 41 40 45 44 42 45 49 47 48 51 53 52
42 45 54 58 70 74 66 51 36 36 36 38 40 38 37 35 34 36 34 34 42 43 45 48 48 41 46 49 48 55 59 58 55
49 55 61 68 77 69 62 51 43 41 39 41 40 39 38 36 38 37 35 37 45 52 49 53 48 48 51 50 53 65 65 64 57
49 60 70 73 75 64 59 58 54 50 48 46 44 42 42 42 40 39 40 46 59 60 53 55 56 54 55 57 66 67 66 65 53
52 58 62 74 78 72 66 62 59 58 52 50 48 50 52 49 50 52 51 60 66 60 59 60 63 63 62 70 72 67 64 60 48
53 58 63 70 74 68 67 63 60 55 55 53 55 53 53 59 62 62 62 74 71 61 69 69 64 65 67 76 72 65 67 51 47
60 63 66 63 62 62 65 67 68 70 69 67 58 54 60 68 74 62 72 78 69 68 70 64 74 67 71 69 66 68 60 49 45
80 79 76 67 67 71 77 76 80 79 78 69 61 66 84 85 72 84 86 79 73 77 68 68 65 71 68 70 66 64 53 49 49
95 96 97 94 89 92 95 90 93 89 88 71 81 84 100 85 97 93 81 79 76 71 69 68 67 70 70 72 65 56 52 55 52
98 98 95 94 94 100 100 100 100 100 84 99 100 100 99 100 97 90 83 76 77 70 68 69 73 72 80 66 65 57 57 63 61
90 93 97 97 100 98 96 94 89 95 100 100 100 100 100 99 99 83 78 79 74 71 67 65 73 81 72 64 63 70 72 61 65
98 95 100 100 99 90 96 96 100 100 100 100 100 100 100 100 87 92 83 73 71 68 68 71 80 77 72 66 70 74 80 76 60
84 89 98 100 99 99 100 100 100 100 100 100 100 100 100 90 91 89 72 70 74 71 74 81 76 86 72 78 87 85 72 66 46
100 100 100 100 100 100 100 100 100 100 100 100 100 100 100 100 90 86 75 78 76 82 83 87 85 81 86 87 92 88 78 47 33
100 100 100 100 100 100 100 100 100 100 100 100 100 100 100 98 100 94 83 84 87 86 89 88 96 87 96 95 93 82 57 39 39
100 100 100 100 100 100 100 100 100 100 100 100 100 100 100 100 100 100 100 97 96 100 99 100 95 100 96 91 85 59 38 46 43
100 100 100 100 100 100 100 100 100 97 100 100 100 100 100 96 100 100 100 99 100 100 100 100 100 96 92 78 68 46 52 50 49

GFSFLT1_250_rhum_093.txt.gz
RH
30 34 35 33 33 34 37 39 39 48 52 59 61 52 39 33 29 30 32 31 30 31 29 32 36 37 38 37 38 37 34 35 34
34 37 36 33 30 33 38 38 43 47 57 64 63 52 40 30 31 36 33 31 30 32 30 32 35 39 41 41 44 40 38 38 35
36 39 33 30 30 33 40 43 52 59 63 60 49 41 32 34 37 37 35 32 34 34 32 36 37 44 45 45 46 41 43 40 42
33 35 34 33 34 38 46 49 55 65 52 43 34 35 38 39 39 38 37 36 38 37 39 42 47 52 52 48 49 45 43 45 48
37 36 37 40 41 45 52 52 66 64 53 41 39 40 40 41 42 41 40 41 42 46 46 50 52 53 53 48 48 46 47 50 56
41 39 39 46 46 52 63 71 69 63 57 49 44 44 46 49 47 47 48 45 47 50 63 64 62 60 54 55 49 49 49 50 51
44 43 43 48 50 56 66 69 64 63 58 58 57 56 56 57 55 55 51 54 59 64 71 73 70 60 58 57 52 50 47 50 48
48 48 46 49 54 55 62 68 71 69 67 66 63 64 65 60 58 54 53 69 97 80 90 82 67 62 56 55 51 49 49 49 48
57 54 53 49 52 57 59 67 74 74 69 68 68 68 67 64 58 55 70 86 94 74 98 86 68 60 57 53 52 52 49 53 46
71 67 65 58 58 60 62 62 61 64 62 64 69 72 74 76 69 66 100 100 84 92 100 85 65 61 58 56 56 52 53 50 46
89 86 81 72 64 67 71 74 72 68 72 81 85 86 81 83 65 98 100 100 88 100 94 76 60 60 57 58 55 55 52 54 48
93 97 95 91 86 91 92 93 96 96 96 96 98 100 97 66 94 100 98 92 100 98 83 69 60 60 60 61 56 52 59 54 59
92 92 95 92 94 99 100 100 99 99 100 100 90 76 86 100 97 100 87 100 100 94 83 72 62 63 61 60 60 62 56 59 60
88 95 97 96 92 93 100 100 100 100 100 96 92 99 100 95 100 100 100 98 95 93 80 69 68 66 65 69 65 67 65 62 63
80 84 90 93 99 100 98 98 100 100 100 99 100 100 99 98 99 100 100 98 87 77 69 69 66 65 77 73 64 66 68 73 79
100 100 87 86 88 84 82 82 78 98 100 100 100 99 100 100 100 96 90 78 84 67 69 74 71 78 72 68 79 68 72 70 73
100 100 100 100 100 100 100 100 100 100 100 100 100 100 100 100 97 87 91 86 85 84 78 76 78 75 72 65 80 80 75 77 66
97 100 100 100 100 100 100 100 100 100 100 100 100 100 100 100 88 95 100 94 93 84 85 80 75 68 72 83 79 79 79 80 42
100 100 100 98 100 100 100 91 89 91 100 100 100 100 100 100 100 100 100 100 97 87 96 84 78 80 76 89 85 85 84 58 32
100 100 100 95 97 100 100 94 100 99 89 73 87 100 100 100 100 100 100 100 100 100 96 96 89 88 92 91 93 82 68 34 41

GFSFLT1_250_rhum_096.txt.gz
RH
27 31 35 31 31 33 33 29 27 32 40 41 49 65 63 61 52 43 33 32 35 34 32 31 31 32 31 32 34 34 39 39 39
29 27 28 33 32 36 33 28 32 37 39 43 61 63 64 55 43 35 36 38 38 36 36 34 36 35 36 38 39 39 39 42 41
29 31 34 34 34 35 31 29 31 37 43 48 63 57 45 36 38 40 41 42 40 39 39 41 44 45 46 46 44 44 44 42 42
28 33 33 35 32 32 30 31 33 39 48 51 57 48 46 41 42 42 42 46 49 48 47 52 55 62 57 58 52 51 48 46 44
32 33 32 35 32 32 32 35 36 42 50 57 62 54 50 43 43 46 53 57 54 51 51 59 85 73 63 77 64 58 48 47 43
35 36 30 35 35 36 36 41 42 43 53 62 59 62 58 57 57 59 64 64 56 54 58 63 94 71 75 79 69 60 49 44 44
41 39 34 41 42 40 40 43 44 47 55 61 58 65 64 66 66 65 66 59 60 58 61 100 100 83 84 77 73 53 47 46 43
48 47 44 47 47 46 48 53 52 56 60 65 65 72 74 72 68 68 65 64 66 66 90 100 98 80 94 76 65 54 48 49 42
58 56 59 58 54 54 54 59 63 65 70 69 76 75 75 70 62 64 70 79 93 78 100 95 73 93 92 68 59 54 50 49 43
67 64 65 66 65 65 66 62 65 78 71 70 73 65 66 68 81 83 98 93 86 100 98 93 95 98 73 71 61 50 51 45 46
66 69 70 80 78 80 81 78 70 65 68 73 78 82 86 83 91 97 64 88 100 100 100 100 85 81 75 57 50 51 52 49 46
63 73 78 80 88 89 96 98 97 92 96 100 93 85 87 99 84 69 97 98 100 98 99 90 91 76 56 51 49 53 56 52 51
64 73 79 91 95 95 94 97 96 98 100 97 91 95 96 83 76 94 100 100 90 100 100 86 63 60 67 71 61 55 58 56 49
74 75 77 81 85 91 96 97 92 89 90 94 96 94 87 91 90 100 99 89 99 100 95 82 67 69 72 72 68 69 74 56 54
98 91 86 83 82 81 80 77 71 75 77 79 86 76 78 91 88 90 96 89 100 90 79 71 84 85 89 78 74 75 75 70 59
100 100 100 100 100 100 100 100 100 100 100 100 100 100 100 93 97 96 79 95 94 86 73 85 92 95 97 90 91 80 80 69 64
100 100 100 90 80 80 97 99 100 100 100 96 91 94 86 90 76 81 84 77 84 74 76 90 99 100 99 98 86 91 87 82 71
99 100 100 100 100 94 87 83 76 75 88 95 87 85 84 84 81 79 81 83 84 87 95 92 94 100 90 94 100 99 86 83 83
100 100 100 100 99 99 100 84 81 82 76 86 73 76 74 66 88 99 89 82 99 95 82 89 97 98 99 100 96 95 94 70 81
100 100 100 100 100 100 100 100 100 86 80 69 70 77 91 97 86 99 96 92 88 88 94 97 99 100 100 91 95 90 86 86 89

GFSFLT1_250_rhum_099.txt.gz
RH
27 28 32 31 32 28 27 27 30 35 28 26 32 38 45 56 59 62 54 42 38 38 38 38 38 38 40 47 48 48 47 46 44
27 28 28 29 29 29 28 29 32 32 28 31 37 43 49 52 56 48 40 40 41 40 38 41 42 47 48 48 55 58 52 53 57
27 26 29 27 33 34 31 32 28 27 28 33 39 42 51 52 48 45 45 42 41 41 43 48 53 50 48 69 91 61 62 71 48
27 27 28 28 27 30 30 33 29 28 32 37 44 45 53 56 50 50 50 45 47 50 57 58 53 52 53 98 89 66 70 75 42
31 32 33 32 29 30 30 35 32 31 36 39 47 49 54 64 56 58 59 62 62 63 60 58 57 59 75 99 82 74 94 53 45
35 35 37 38 38 39 35 37 40 36 42 42 48 57 67 63 56 62 67 67 65 62 61 62 73 72 100 95 87 92 66 50 46
38 37 35 35 40 43 39 40 46 45 50 50 58 64 69 71 62 67 72 72 66 61 72 85 71 98 94 84 83 64 64 48 42
35 37 37 37 44 43 43 48 51 50 61 66 68 74 71 74 69 71 70 64 65 77 98 67 71 90 88 93 83 59 52 44 46
44 42 42 45 51 50 55 60 58 63 66 67 73 80 74 68 74 75 70 72 78 99 76 66 90 87 74 80 71 60 54 46 47
66 52 50 52 55 63 65 65 72 72 74 76 74 70 72 70 74 78 77 81 93 96 69 88 86 78 77 74 72 62 50 49 50
80 70 61 58 56 66 68 75 84 84 84 88 90 89 87 93 94 92 92 100 100 97 98 84 83 74 75 69 72 57 51 55 57
98 91 80 68 68 64 76 79 82 86 87 85 79 79 90 100 92 76 93 94 96 100 87 91 90 78 80 68 58 53 54 57 62
100 100 91 83 74 75 77 82 93 92 87 92 86 71 61 59 64 74 72 71 76 77 84 87 80 74 62 74 64 61 56 61 69
100 100 100 95 86 83 84 87 85 85 81 80 74 80 82 77 82 86 98 98 79 80 79 72 70 71 76 74 69 60 69 72 63
84 100 100 100 100 100 99 94 91 88 90 84 91 100 99 100 87 100 96 94 81 67 71 66 77 84 83 73 72 70 71 79 79
62 93 100 100 100 100 100 100 98 68 66 90 100 90 42 64 80 84 76 68 66 64 72 67 75 68 71 69 77 82 76 68 80
75 100 100 100 100 100 100 100 100 100 100 80 77 64 58 62 66 68 70 56 76 63 55 54 55 61 65 81 74 83 84 87 86
100 100 100 100 100 100 100 100 99 100 100 100 100 94 95 95 86 83 78 65 54 46 38 44 51 66 79 81 88 96 95 87 91
100 100 100 100 100 100 100 100 85 86 84 75 78 93 80 64 60 72 54 45 47 37 56 68 81 83 95 97 91 91 94 98 99
100 100 100 100 100 100 100 100 100 100 100 88 86 83 74 72 68 64 46 46 51 54 72 93 100 94 98 100 100 97 100 97 74

GFSFLT1_250_rhum_102.txt.gz
RH
33 31 30 28 26 30 32 33 34 33 30 30 29 27 32 37 38 48 47 54 48 43 43 41 40 40 52 51 49 56 90 82 70
30 28 28 27 27 27 28 31 32 31 31 31 28 29 32 35 40 49 52 48 47 49 46 42 46 53 52 50 55 58 92 87 69
29 29 28 28 27 28 27 28 30 27 30 31 30 30 36 38 45 52 52 53 52 53 54 54 55 54 51 57 58 84 88 70 56
31 34 31 30 28 29 30 29 31 32 32 37 36 36 42 42 48 58 70 60 55 59 64 62 60 58 58 65 60 87 75 64 56
31 32 31 32 32 32 36 35 37 39 35 39 43 41 47 51 56 64 76 67 59 62 68 69 61 61 79 65 67 76 72 60 56
42 33 30 32 33 34 38 41 40 46 41 43 48 47 55 64 73 65 69 72 66 71 70 60 65 71 89 65 73 71 70 61 54
66 51 38 31 32 38 39 38 42 46 44 44 52 52 63 65 73 73 66 68 69 69 66 69 74 87 78 61 75 78 69 63 54
72 73 57 46 38 34 36 37 40 47 49 54 56 61 70 72 75 75 65 65 66 71 73 75 94 93 79 82 76 75 67 61 55
74 69 74 67 56 48 43 45 47 51 54 55 62 69 72 76 78 77 66 68 79 88 88 95 85 74 77 79 63 69 68 58 52
77 70 74 82 72 65 56 56 52 50 54 56 60 71 77 78 80 80 76 77 93 94 77 62 64 61 70 73 70 68 58 50 57
98 98 95 91 92 79 77 70 67 68 61 59 70 76 80 82 80 72 66 74 64 57 58 66 56 61 70 74 62 62 52 47 49
100 100 100 100 100 99 94 83 79 76 74 75 72 78 78 75 63 64 69 83 89 92 88 75 73 70 66 64 63 53 47 54 49
97 94 98 100 99 100 100 100 92 83 80 78 76 78 77 72 74 75 91 100 100 78 67 69 75 77 73 63 56 40 52 55 53
89 91 91 87 99 100 100 100 100 100 100 98 96 95 85 79 78 87 100 81 56 50 49 52 65 69 61 61 42 46 47 53 62
100 99 93 100 100 100 100 100 100 100 100 100 100 97 76 72 67 74 63 70 72 62 71 70 70 66 64 53 51 48 56 68 71
100 97 80 96 100 97 100 100 100 100 100 100 100 96 82 64 58 63 73 78 89 89 88 95 71 58 55 60 53 66 74 66 69
100 94 87 87 85 100 100 100 100 100 100 95 87 95 100 100 92 86 100 100 98 100 94 72 58 54 53 61 63 78 74 92 87
100 100 100 100 100 100 100 100 100 100 100 98 87 77 84 77 90 98 94 75 68 73 59 51 46 56 64 71 80 82 85 85 85
100 100 100 100 100 100 100 100 100 99 80 82 83 100 99 94 84 80 64 56 50 58 45 50 64 67 77 85 91 88 99 99 100
100 100 100 100 100 100 100 100 100 99 94 100 100 84 66 56 60 54 48 56 75 70 76 100 100 100 100 100 100 100 100 100 100

GFSFLT1_250_rhum_105.txt.gz
RH
30 35 35 33 32 32 29 28 30 28 30 32 28 31 35 29 32 36 38 49 55 54 51 52 53 57 60 60 54 57 66 57 64
30 33 33 33 31 27 28 27 28 27 27 29 28 30 36 36 34 41 43 50 57 72 65 55 55 60 64 64 57 65 74 58 56
28 27 26 27 29 28 28 28 28 29 27 30 35 38 39 44 36 42 49 54 59 69 73 64 62 64 64 57 56 67 84 58 59
30 28 27 28 29 30 30 30 29 32 32 35 39 42 36 45 44 43 52 63 65 65 69 72 66 60 63 60 60 79 74 69 62
43 42 34 31 31 31 34 34 32 35 37 40 39 45 39 45 49 46 52 61 71 66 62 66 61 64 67 58 70 87 70 60 56
59 58 55 46 38 34 31 32 35 36 42 41 38 44 40 42 50 50 57 60 70 75 68 63 60 64 67 70 70 72 65 61 63
78 70 63 57 61 56 48 41 36 34 35 36 38 39 40 48 52 59 65 68 70 68 61 59 61 68 61 59 59 63 62 68 55
76 69 63 62 60 62 58 59 53 49 41 40 40 42 40 44 45 56 64 66 65 63 56 56 62 60 54 57 55 61 81 62 54
71 72 68 66 68 66 68 64 65 65 61 59 58 60 58 54 49 49 58 59 57 58 57 53 65 64 55 54 67 62 78 71 53
84 83 90 78 78 76 80 79 75 77 73 75 72 69 67 64 60 57 57 55 59 58 57 83 76 68 67 54 56 56 60 64 56
99 100 100 100 97 88 98 100 94 96 88 86 83 78 74 74 69 68 60 60 54 57 70 79 61 60 62 64 66 57 55 57 50
100 100 92 100 100 100 96 100 100 99 100 100 91 90 90 88 85 80 73 64 67 71 74 87 75 62 71 76 78 73 56 50 52
100 100 100 98 94 93 100 98 100 100 100 100 100 100 100 100 100 88 82 85 95 83 73 67 68 73 85 84 66 67 58 54 55
100 100 100 100 100 100 100 100 100 100 100 100 100 100 100 100 100 97 62 62 67 71 62 64 70 82 85 67 77 74 57 62 55
100 100 100 100 99 100 100 100 100 100 100 100 100 100 99 96 59 55 52 46 46 47 48 60 80 90 85 65 61 54 55 58 58
100 100 100 100 100 99 100 100 100 100 100 90 93 90 81 75 71 77 76 77 92 100 100 96 100 100 84 60 53 54 59 56 59
100 100 100 100 97 97 98 100 100 100 100 99 90 88 94 97 94 99 93 92 86 88 81 68 91 78 60 46 62 61 71 96 94
100 100 99 100 100 100 100 100 100 100 100 100 100 100 93 90 97 90 89 88 73 91 86 62 64 61 58 72 76 96 100 100 100
98 100 100 100 100 100 100 100 100 100 100 100 95 78 65 62 70 68 58 61 60 67 76 74 60 63 74 100 100 100 100 100 100
88 100 100 100 100 100 100 100 100 100 100 100 100 100 96 81 76 76 81 78 86 89 98 100 100 100 100 100 100 100 100 100 100

GFSFLT1_250_rhum_108.txt.gz
RH
26 25 26 29 32 34 36 33 31 28 28 29 27 29 31 32 34 40 36 34 37 46 54 52 54 59 65 65 61 53 53 51 57
29 28 27 26 30 33 32 30 29 28 28 28 29 29 32 34 36 35 38 39 40 47 55 56 56 56 64 59 56 59 51 54 58
29 30 28 27 27 25 26 27 30 32 31 30 31 32 34 37 36 35 40 43 45 51 57 62 60 56 56 55 52 55 48 50 44
35 35 33 31 29 26 26 26 28 29 30 32 34 34 35 36 39 40 39 50 48 51 58 60 66 57 48 51 54 49 48 47 52
48 40 39 40 44 39 31 29 28 28 28 30 31 33 35 35 36 35 36 45 50 52 56 57 55 48 50 50 52 52 53 50 52
51 42 40 44 49 52 47 48 46 45 44 40 39 36 36 37 37 35 35 39 42 48 57 52 49 46 51 51 63 69 53 54 57
58 51 48 49 55 52 51 48 47 49 49 51 52 53 53 51 53 53 52 50 43 41 44 45 45 48 51 53 75 72 70 64 50
59 57 56 62 59 54 59 60 56 58 57 60 55 54 56 57 58 59 59 55 51 50 48 46 46 48 51 71 80 78 66 64 50
70 69 62 61 63 64 64 72 66 66 66 68 65 62 59 59 58 62 57 57 57 54 49 53 55 52 57 71 73 67 66 61 53
92 78 77 76 75 80 87 95 84 84 87 80 77 77 74 70 70 62 60 61 60 56 54 64 74 68 69 71 70 68 53 62 60
100 100 100 100 99 100 100 94 90 90 90 84 85 79 90 82 75 76 81 84 82 66 67 71 49 49 52 49 51 47 57 55 63
100 100 100 100 100 91 88 93 96 88 87 98 100 94 88 86 83 86 95 98 64 52 37 53 45 42 48 50 48 53 60 91 86
100 99 99 100 100 100 100 100 100 87 87 97 97 100 100 100 98 99 76 63 61 60 59 60 55 52 46 56 65 70 100 95 70
100 100 98 100 100 96 100 100 100 95 100 100 100 100 100 99 95 98 99 92 86 87 76 69 65 64 72 65 74 80 67 64 57
100 100 100 100 100 100 100 100 100 99 100 100 100 100 100 100 88 90 88 82 75 68 72 73 83 74 68 61 68 70 73 51 51
100 100 100 100 100 100 100 100 100 87 80 94 100 100 100 100 94 80 72 80 78 69 69 74 83 74 68 69 78 75 61 64 78
100 100 100 100 97 99 98 100 100 100 100 100 100 100 100 96 91 77 67 59 64 68 66 71 73 79 81 85 89 78 86 94 100
100 100 100 100 94 100 100 100 100 100 100 100 100 100 100 92 86 76 58 53 58 58 67 63 79 94 98 92 81 84 100 99 100
92 75 72 84 95 100 100 100 100 100 100 97 97 91 91 75 67 54 64 68 66 64 71 80 81 93 80 88 90 100 100 97 100
95 86 94 100 100 100 100 100 100 100 78 73 88 86 86 87 63 86 93 83 81 94 96 97 100 100 100 100 100 100 100 100 100

GFSFLT1_250_rhum_111.txt.gz
RH
35 27 25 25 24 24 25 26 34 35 32 28 27 28 27 26 27 28 28 30 31 38 38 41 41 47 50 56 55 50 48 43 44
40 29 28 26 26 26 24 25 25 25 24 27 27 28 29 28 27 29 30 31 30 32 39 37 42 49 50 57 56 52 47 43 47
47 32 31 28 28 26 26 24 24 24 25 25 26 27 27 28 30 31 32 31 32 31 34 32 36 40 45 52 49 46 47 55 56
48 37 44 42 32 33 33 33 29 28 29 29 30 34 32 32 30 32 33 30 29 32 37 38 36 36 38 42 46 49 49 63 62
52 50 55 47 39 32 36 47 46 43 43 47 44 40 42 44 41 42 42 45 45 44 46 45 42 39 36 40 44 52 50 64 66
68 56 57 51 41 36 39 47 48 47 43 43 44 43 44 45 42 40 40 40 41 42 42 44 43 43 44 49 56 62 50 53 58
74 61 59 54 52 47 47 54 52 48 50 53 54 51 51 46 44 45 44 43 40 43 42 42 42 47 53 53 55 59 55 53 46
67 65 61 58 56 52 56 62 61 58 59 60 57 50 51 54 53 48 47 44 43 42 43 47 38 42 46 49 44 41 42 47 52
85 70 66 69 70 64 57 62 68 74 84 75 67 67 76 78 68 62 62 55 53 54 46 40 42 40 45 45 45 51 61 55 47
100 100 93 98 96 90 82 80 87 84 87 98 79 62 65 82 92 90 82 79 67 62 58 53 60 59 52 58 60 59 56 44 61
100 100 100 100 100 100 100 100 84 86 79 76 76 81 80 67 69 74 71 71 88 84 84 77 76 67 61 60 62 55 57 68 57
85 86 88 82 95 100 96 99 100 100 100 100 100 94 80 84 86 90 76 77 87 70 74 72 69 75 65 52 55 62 67 64 64
100 96 99 97 99 100 81 90 92 95 92 98 96 83 78 85 86 82 94 79 76 67 61 63 51 50 54 52 66 70 67 66 74
100 100 100 100 100 100 100 100 100 100 100 100 100 100 100 100 89 82 89 73 85 71 61 58 50 54 50 58 69 60 60 69 91
63 80 89 99 100 100 100 100 100 100 96 100 100 100 100 100 91 86 83 80 70 64 60 55 52 54 48 52 52 52 55 62 74
100 100 100 100 100 100 100 100 100 100 100 100 100 100 100 100 100 96 80 73 59 61 49 48 47 48 50 62 76 75 74 62 61
100 100 100 100 100 100 100 100 100 100 100 100 100 100 100 100 100 91 82 80 66 56 58 46 51 58 66 66 65 69 60 66 60
97 100 100 92 88 82 77 94 100 100 100 100 100 99 93 96 100 90 83 62 53 61 51 65 75 87 82 80 83 72 82 65 88
99 100 96 86 70 73 96 87 86 84 89 76 71 61 57 84 91 73 66 65 58 52 49 83 91 100 100 97 91 99 80 97 100
50 60 78 64 66 75 77 100 90 67 61 50 41 48 61 57 75 79 89 75 72 80 88 96 100 100 100 100 100 100 100 100 100

GFSFLT1_250_rhum_114.txt.gz
RH
38 43 35 32 26 24 22 22 23 24 26 27 26 28 27 26 27 27 28 28 28 26 26 28 34 36 37 36 38 43 40 42 47
38 48 40 34 28 26 24 23 23 25 25 25 24 26 26 26 26 26 26 29 28 28 28 34 37 40 38 38 40 42 47 46 43
38 42 44 40 31 27 28 27 29 28 29 28 31 34 36 36 35 36 34 34 34 35 35 35 35 37 38 41 44 48 47 43 44
44 47 46 43 38 40 34 36 37 38 39 40 41 40 37 36 37 37 36 36 35 36 35 36 38 38 39 40 49 55 48 36 40
47 50 54 51 49 52 40 36 33 35 40 40 40 40 39 43 44 43 42 42 42 42 40 38 38 38 38 38 40 40 43 48 44
67 70 62 64 58 53 46 41 41 43 47 46 44 45 47 50 47 46 46 48 45 40 40 41 40 38 40 39 44 46 48 48 53
92 75 69 74 69 54 54 50 47 50 54 50 48 50 48 50 49 51 52 55 50 51 52 53 52 49 51 56 58 59 51 52 55
93 74 72 72 56 58 56 54 54 51 52 50 59 60 55 52 52 54 53 56 61 66 68 63 57 69 64 72 59 56 54 55 52
97 87 84 76 79 72 61 62 68 63 60 60 74 64 67 59 63 62 47 53 56 59 55 59 64 57 57 56 69 61 65 59 52
100 100 75 74 97 97 95 94 90 68 76 81 61 67 68 81 86 88 62 48 48 54 61 65 71 68 67 53 53 60 54 52 53
100 100 94 85 100 100 100 100 98 99 100 97 100 100 100 99 96 84 68 71 69 64 61 66 74 73 60 57 54 50 45 50 52
97 94 85 97 96 82 74 80 76 82 100 66 81 98 99 100 75 78 99 92 99 89 89 74 70 54 60 58 52 48 47 55 54
79 84 85 100 100 98 86 98 100 100 100 94 99 100 100 100 100 100 95 100 100 89 73 71 62 57 61 72 51 53 54 42 45
75 75 97 100 100 100 99 100 100 100 100 100 100 100 100 92 71 86 90 100 77 82 76 76 70 62 64 73 52 59 52 54 55
60 69 100 100 96 86 96 100 100 100 100 98 100 100 70 75 84 93 91 96 55 58 73 78 69 60 52 59 49 43 52 64 86
74 58 56 71 88 100 100 100 100 100 100 100 94 86 70 90 95 77 61 48 51 64 75 74 64 57 56 50 41 48 60 76 87
57 69 82 86 98 92 100 100 96 83 83 96 71 78 70 70 61 65 53 44 55 66 64 70 58 51 56 53 42 52 66 82 100
100 100 93 93 100 95 79 71 70 71 73 72 64 89 70 81 62 45 40 42 48 55 52 53 43 44 42 46 60 65 65 80 74
100 100 100 100 87 89 69 65 73 77 76 67 58 62 53 42 35 30 38 48 40 41 46 45 49 53 57 62 74 88 88 78 86
100 100 100 92 65 67 62 63 68 63 52 58 71 36 32 30 30 32 43 43 50 49 66 70 72 87 95 99 92 89 86 85 80

GFSFLT1_250_rhum_117.txt.gz
RH
52 47 37 37 38 32 27 26 24 24 23 24 24 24 24 24 27 30 30 30 30 31 32 34 33 36 38 38 37 36 41 41 48
38 33 34 38 42 40 33 27 25 26 26 26 26 26 29 32 33 32 32 33 35 35 34 33 34 36 36 39 38 37 34 39 58
34 34 32 34 41 42 37 34 33 30 31 32 36 36 37 34 30 32 36 40 40 38 38 39 36 37 39 41 37 40 43 54 57
50 46 37 43 45 45 48 52 42 38 40 38 43 41 38 36 39 42 42 42 44 44 46 42 46 44 41 42 46 46 51 56 57
57 55 49 48 57 57 55 58 52 40 37 37 40 41 38 39 40 43 45 39 39 39 40 50 51 53 48 51 50 55 69 66 62
57 60 62 60 68 69 71 58 54 47 43 43 41 43 42 42 51 48 43 44 44 41 39 44 44 47 52 54 64 70 71 66 64
64 81 81 87 71 74 73 59 49 51 49 48 49 45 44 52 61 52 58 54 52 49 50 52 49 46 54 57 82 76 69 63 48
77 82 91 85 78 70 73 55 63 58 56 54 56 59 65 69 53 53 71 74 82 62 60 54 52 47 49 64 74 70 76 58 44
80 90 93 90 67 74 65 64 69 74 80 87 72 75 67 65 85 100 100 100 87 72 65 69 74 58 79 78 70 69 76 60 43
88 81 100 100 100 100 74 72 95 100 100 100 100 94 92 76 74 76 94 99 84 67 100 100 100 98 91 67 75 70 68 60 47
100 97 95 100 100 100 82 83 97 97 95 100 83 84 100 82 83 83 76 100 94 100 85 77 81 74 81 84 82 55 54 50 51
100 97 90 84 86 86 78 74 79 100 98 98 95 100 100 100 100 100 100 100 96 78 64 46 55 77 73 78 68 54 50 49 46
100 100 100 100 86 77 75 83 100 100 100 100 100 100 100 100 100 100 100 92 74 59 54 45 55 50 54 61 56 54 53 53 48
100 100 100 100 90 79 76 79 100 100 100 99 100 94 97 90 100 97 92 63 53 49 46 52 48 41 39 48 46 49 47 48 46
100 100 100 100 89 73 86 100 100 100 96 100 99 98 87 82 70 74 73 62 48 43 45 41 32 31 38 40 44 48 45 50 50
100 99 100 100 100 92 88 80 74 76 90 100 86 68 62 49 54 62 59 55 47 50 44 33 33 36 40 38 43 48 44 50 55
100 100 95 85 77 77 75 79 96 93 88 68 64 64 52 54 45 57 49 50 53 43 34 28 35 41 39 45 49 42 43 41 48
98 89 67 99 100 100 100 95 97 82 64 73 52 57 56 42 47 39 40 37 41 29 27 35 36 37 34 32 38 40 46 60 99
78 80 99 100 100 100 100 83 71 85 76 66 62 62 51 54 42 29 35 32 31 21 24 28 30 30 26 43 60 65 74 100 100
87 100 100 100 100 100 88 83 82 73 74 84 85 75 59 59 50 47 41 26 20 18 20 23 27 37 52 80 92 100 100 100 100

GFSFLT1_250_rhum_120.txt.gz
RH
37 38 50 54 43 38 36 35 33 28 24 23 22 21 24 27 30 32 32 36 38 41 42 40 40 43 40 43 42 48 52 58 65
36 35 38 39 38 39 42 41 36 33 28 27 29 28 29 36 39 36 39 40 37 40 38 38 35 36 39 42 43 49 64 78 72
49 38 37 36 36 34 37 43 40 37 39 36 36 37 38 38 38 39 40 41 43 39 38 35 35 36 40 43 50 54 62 88 74
60 52 46 46 43 42 42 47 47 45 44 40 36 34 39 43 42 40 44 48 43 40 35 37 41 50 51 46 49 54 76 99 81
68 61 49 50 54 49 51 56 54 53 48 41 36 38 42 47 48 42 55 52 47 47 56 52 53 58 49 44 52 60 66 80 73
76 64 50 52 54 52 50 61 64 59 51 47 43 46 47 52 51 57 62 51 64 62 91 83 64 73 71 62 53 98 72 68 63
73 70 54 51 55 69 64 59 64 61 48 46 49 51 56 54 60 59 63 67 99 97 99 79 73 100 90 100 100 100 98 83 53
74 68 64 65 69 80 74 69 68 58 54 55 62 64 69 67 68 90 87 77 76 88 100 100 100 100 66 66 100 100 100 69 47
77 69 65 71 79 87 74 73 80 81 62 66 70 94 100 100 83 77 70 76 85 98 100 100 100 100 62 49 85 99 94 62 49
90 91 82 68 67 72 100 100 100 99 80 74 100 96 86 89 80 98 97 95 99 100 100 100 94 70 51 45 52 60 58 52 48
84 88 99 97 88 74 86 100 100 100 100 78 65 64 67 98 99 84 100 100 100 100 100 64 55 50 41 42 45 41 44 50 45
98 98 97 100 100 100 89 74 84 86 80 79 73 72 99 100 72 80 94 96 87 70 62 57 49 46 41 47 31 32 37 41 37
100 100 100 100 100 100 100 100 100 97 84 82 80 77 84 80 90 95 87 71 66 67 55 74 52 39 44 44 30 35 44 40 39
92 88 90 96 100 98 100 100 100 100 99 89 78 81 100 96 93 84 84 66 56 51 44 36 36 39 54 41 30 32 40 36 31
97 100 100 100 100 100 100 100 100 100 100 100 100 99 99 86 80 74 56 46 41 35 32 32 36 42 39 27 29 33 33 36 26
100 100 95 100 100 100 100 100 100 100 100 100 100 100 92 87 65 56 46 37 32 30 30 28 28 36 26 22 23 27 26 26 28
100 92 94 96 100 100 100 100 99 98 96 96 96 98 83 64 51 42 33 34 34 37 32 27 36 28 25 22 22 25 29 32 44
100 98 76 77 100 100 100 99 100 100 100 100 82 74 62 49 38 36 31 29 30 32 29 29 30 30 21 20 18 20 24 43 73
81 68 49 54 100 100 100 100 100 100 100 100 80 66 51 52 38 38 26 22 23 26 26 39 38 31 25 20 21 35 56 79 96
64 68 44 79 100 100 100 100 100 100 100 95 98 69 59 46 32 33 30 30 22 22 32 36 29 28 22 18 25 46 74 100 97

GFSFLT1_250_rhum_123.txt.gz
RH
44 40 40 40 49 48 48 45 38 34 33 30 27 24 27 29 29 33 34 33 36 42 38 37 35 36 37 39 46 47 45 48 62
54 51 42 39 41 40 39 36 36 39 37 32 29 31 31 35 37 35 35 36 40 44 40 37 38 44 47 46 51 56 57 66 66
59 62 57 55 46 47 43 36 38 39 42 40 38 31 34 33 38 41 42 39 48 47 44 42 43 63 61 64 62 88 63 92 74
66 66 60 61 56 50 51 47 48 50 48 47 43 39 32 35 38 41 45 44 49 46 51 62 80 83 84 91 75 76 100 100 89
78 63 60 64 59 50 54 55 53 54 59 54 50 44 40 40 45 47 48 45 50 50 84 84 97 90 88 99 80 59 88 100 100
75 71 68 66 62 52 53 54 54 60 64 61 51 46 47 46 47 52 46 46 49 60 76 68 92 98 91 70 87 71 48 72 99
80 82 79 67 68 60 56 64 67 70 66 75 60 62 60 59 62 60 56 53 60 62 67 67 87 100 66 89 81 67 43 45 43
93 84 73 69 73 66 65 85 82 69 68 73 86 63 66 76 79 79 63 69 78 61 71 98 79 59 99 95 50 43 35 40 32
100 95 88 76 76 78 64 74 86 89 93 100 100 88 79 88 99 92 70 71 92 83 100 73 66 99 86 47 48 42 41 30 28
100 100 98 95 94 96 86 68 62 82 96 100 100 100 85 86 71 62 64 87 96 67 78 69 74 62 49 49 42 48 49 33 32
100 100 98 94 100 98 96 89 93 89 96 90 85 92 81 74 66 58 64 89 72 64 76 80 65 52 42 41 38 40 58 36 28
84 93 100 100 100 100 93 99 100 100 100 100 100 100 100 90 70 80 81 88 73 60 83 94 70 45 33 28 34 37 41 29 26
91 96 99 100 100 100 100 100 100 100 100 100 99 98 100 100 88 100 100 96 100 100 86 69 49 36 28 28 32 39 31 22 25
100 100 100 100 100 100 100 100 96 95 99 100 97 97 100 100 100 100 100 100 100 91 70 52 38 29 25 24 23 28 26 22 21
100 100 100 100 100 100 100 100 100 100 100 100 100 100 100 100 100 100 100 99 98 82 60 42 30 26 22 25 26 22 18 22 21
100 100 100 100 100 100 100 100 90 76 89 100 100 99 100 100 100 98 100 89 74 59 42 30 20 17 18 20 22 23 22 21 22
100 100 100 100 100 100 100 88 83 87 82 80 100 100 100 96 92 100 89 72 61 47 35 25 19 15 15 17 23 20 18 22 18
100 100 100 100 100 96 100 94 88 83 91 97 100 100 100 96 94 80 72 65 52 41 30 23 19 16 14 14 16 15 12 15 14
100 100 100 100 98 100 100 100 85 69 88 100 100 100 100 95 75 73 58 55 43 34 29 23 17 16 17 19 15 14 12 14 21
100 100 100 100 100 100 92 70 61 66 100 100 100 100 100 90 72 67 54 51 52 38 31 23 19 20 19 19 14 14 23 45 48

GFSFLT1_250_rhum_126.txt.gz
RH
54 55 48 49 46 41 50 46 43 41 35 36 35 32 29 28 29 34 36 39 39 39 45 41 42 42 46 46 44 52 46 64 68
59 58 53 51 50 47 47 43 43 36 33 37 36 36 37 32 31 36 35 37 39 37 41 43 46 43 53 48 58 57 59 70 63
70 66 59 53 60 57 53 47 53 45 46 47 48 41 40 39 31 35 36 43 42 38 41 43 49 48 65 63 58 54 75 76 58
77 74 67 50 54 62 64 56 56 57 55 55 57 48 48 43 41 38 39 41 44 41 46 54 55 53 56 82 75 52 82 69 44
79 79 77 72 61 62 64 62 57 59 58 56 60 54 48 43 45 51 49 48 46 47 49 55 60 57 50 73 52 61 100 49 39
72 82 82 74 70 69 70 68 58 56 58 59 63 62 54 47 52 53 56 58 56 53 67 66 55 88 70 51 54 98 50 46 38
68 81 87 86 71 62 76 75 68 70 76 74 68 65 69 68 57 70 95 82 84 71 68 75 72 91 63 58 78 55 40 45 29
83 82 85 85 91 72 80 82 73 73 87 75 67 65 95 90 88 82 91 85 70 63 66 78 72 60 64 72 73 57 38 47 29
91 85 78 78 91 90 88 83 92 76 76 78 74 91 100 100 100 95 72 57 52 59 54 60 63 65 86 82 77 48 33 30 26
87 95 97 93 98 100 100 100 99 95 86 73 69 68 86 93 100 100 95 97 67 73 69 61 74 81 95 84 60 43 28 24 22
91 83 100 98 95 100 100 99 98 100 91 96 100 100 100 98 100 100 84 86 96 87 77 88 97 93 88 80 56 35 25 21 20
89 94 100 100 100 100 100 94 97 100 99 99 100 100 99 100 100 82 97 100 100 82 86 100 100 96 84 64 45 24 23 20 23
67 84 100 100 100 100 100 93 84 100 100 100 100 99 88 98 100 100 100 100 99 71 100 100 100 98 64 55 33 19 15 19 25
64 86 97 100 100 100 100 100 100 100 100 100 100 100 100 97 95 100 94 98 96 88 100 100 98 69 54 45 27 18 16 16 21
99 97 100 100 100 100 100 100 100 100 100 100 100 100 78 75 73 92 100 98 100 100 100 97 78 62 54 39 25 19 17 14 15
64 100 100 100 100 100 100 100 100 100 100 100 100 100 75 75 87 91 90 100 100 91 88 73 67 53 43 34 25 18 16 14 14
100 100 100 100 100 100 100 100 100 100 100 100 100 82 71 91 95 100 100 100 100 100 79 67 59 50 42 37 28 22 19 14 14
100 100 100 100 100 100 100 100 100 100 100 100 88 76 82 100 100 100 100 98 86 74 69 61 49 46 37 30 27 22 19 15 14
100 100 100 100 100 100 100 100 100 100 100 79 80 97 79 97 95 100 100 99 85 75 74 52 42 42 34 30 30 22 18 14 15
100 100 100 100 100 100 100 100 97 96 84 100 100 98 78 80 100 100 100 98 78 76 68 57 48 41 35 38 34 24 20 17 18